İHALESİ DEVAM EDEN HASARLI ARAÇLARIN LİSTESİ

Aşağıda sınırlı sayıda hasarlı araçlar listelenmektedir.
İhaledeki tüm araçları görüp almak istediğiniz araca teklif vermeniz için aşağıda yazılı hesaplarımızdan birine 20.000 TL teminat yatırmanız gerekmektedir.
Teminat yatırdıktan sonra araçlar teklif vermeye başlayabilirsiniz. Araç kaldıktan sonra aracın rakamına göre kapora almaktayız. Ödeme geldiğinde kaporanızı ödeyeceğiniz miktardan düşüyoruz. İsterseniz yatırdığınız teminatınızı da aldığınız araçtan düşebilirsiniz ya da teminatınız durur araç almaya devam edersiniz.
Ödeme yapılacak veya bekleyen araçlar menüsünde aracınız yoksa teminatınızı geri çekebilirsiniz.
Aldığınız aracı ödemezseniz teminatınız yanar.

 #

Model

Aracın Markası Aracın Tipi Bulunduğu Şehir Kapanış Tarihi Asgari Fiyat
1 2021 Motorsiklet REVOLT RM5 X MAXI SCOOTER İzmir 7.5.2026 10:00 250 TL
2 1996 Fiat/Tofaş TİPO 1.6 SLX Manisa 7.5.2026 10:00 250 TL
3 2023 Motorsiklet APEC APX5 Trabzon 7.5.2026 10:00 250 TL
4 2023 Motorsiklet KANUNI RESA 125 Gaziantep 7.5.2026 10:00 250 TL
5 2024 Motorsiklet ARORA CAPPUCCINO 125 İstanbul 7.5.2026 10:00 250 TL
6 2023 Motorsiklet RKS SPONTINI 110 (GST110T-14) İstanbul 7.5.2026 10:00 250 TL
7 2018 Motorsiklet LIFAN DISCOVERY 150 (LF150-9J) Isparta 7.5.2026 10:00 250 TL
8 2024 Motorsiklet RKS RK 125 S Samsun 7.5.2026 10:00 250 TL
9 2021 Motorsiklet CFMOTO 150 NK Aydın 7.5.2026 10:00 250 TL
10 2023 Motorsiklet KANUNI SEHA 150 Rize 7.5.2026 10:00 250 TL
11 2014 Motorsiklet KTM 390 DUKE Elazığ 7.5.2026 10:00 250 TL
12 2024 Motorsiklet MONDIAL SFC MİNİ 50 Konya 7.5.2026 10:00 250 TL
13 2025 Motorsiklet MONDIAL SFC 50 Kahramanmaraş 7.5.2026 10:00 250 TL
14 2014 Motorsiklet MONDIAL 100 SUPERBOY i İstanbul 7.5.2026 10:00 250 TL
15 2025 Motorsiklet MONDIAL 125 DRİFT L Kayseri 7.5.2026 10:30 1.500 TL
16 2024 Motorsiklet ARORA AR 06 Samsun 7.5.2026 10:30 500 TL
17 2019 Motorsiklet SYM JET14 125 İstanbul 7.5.2026 10:30 250 TL
18 2022 Motorsiklet MONDIAL VULTURE İ 125 İstanbul 7.5.2026 10:30 500 TL
19 2022 Motorsiklet KUBA SPACE 50 Zonguldak 7.5.2026 10:30 250 TL
20 2024 Motorsiklet MUSATTI GLAMARO MAX 125 İstanbul 7.5.2026 10:30 250 TL
21 2023 Motorsiklet ARORA CAPPUCCINO 50 Antalya 7.5.2026 10:30 1.000 TL
22 2023 Motorsiklet RKS SPONTINI 110 (GST110T-14) İstanbul 7.5.2026 10:30 250 TL
23 2022 Motorsiklet KUBA BLUEBERRY 50 Aydın 7.5.2026 10:30 500 TL
24 2023 Motorsiklet MONDIAL 50 wing Denizli 7.5.2026 10:30 250 TL
25 2024 Motorsiklet FALCON SALVADOR 188 Çorum 7.5.2026 10:30 250 TL
26 1993 Motorsiklet HONDA KINETIC Kilis 7.5.2026 10:30 250 TL
27 2024 Motorsiklet MONDIAL EXON 50 Ankara 7.5.2026 10:30 250 TL
28 2015 Motorsiklet KYMCO PEOPLE ONE 125i Denizli 7.5.2026 10:30 250 TL
29 2024 Motorsiklet ALTAI CARRIER 110 PRO İstanbul 7.5.2026 11:00 4.500 TL
30 2024 Motorsiklet HERO DASH 125 Bursa 7.5.2026 11:00 4.500 TL
31 2023 Motorsiklet MONDIAL AİRTİME 50CC Isparta 7.5.2026 11:00 3.500 TL
32 2024 Motorsiklet HONDA ACTIVA 125 Zonguldak 7.5.2026 11:00 2.500 TL
33 2025 Motorsiklet RKS VRS125 İzmir 7.5.2026 11:00 2.500 TL
34 2023 Motorsiklet MONDIAL STRADA 125 Ankara 7.5.2026 11:00 2.000 TL
35 2023 Motorsiklet BAJAJ PULSAR F 250 İzmir 7.5.2026 11:00 3.000 TL
36 2023 Motorsiklet CFMOTO 250 NK Aydın 7.5.2026 11:00 1.500 TL
37 1992 Fiat/Tofaş TEMPRA 1.6 İzmir 7.5.2026 11:00 6.000 TL
38 2024 Motorsiklet TVS RAIDER 125 Kayseri 7.5.2026 11:00 5.500 TL
39 1994 Fiat/Tofaş SERÇE Tokat 7.5.2026 11:00 2.000 TL
40 2019 Motorsiklet MONDİAL MASH 125 İstanbul 7.5.2026 11:00 2.000 TL
41 1996 Renault 19 EUROPA 1.4 Mersin 7.5.2026 11:00 4.500 TL
42 2024 Motorsiklet ARORA MT 125 Ankara 7.5.2026 11:00 5.500 TL
43 1998 Renault 19 EUROPA Ankara 7.5.2026 11:30 25.000 TL
44 2025 Motorsiklet RKS VRS125 İstanbul 7.5.2026 11:30 13.000 TL
45 1998 Renault 19 EUROPA 1.4 RNA Diyarbakır 7.5.2026 11:30 18.000 TL
46 2023 Motorsiklet HONDA DİO Muğla 7.5.2026 11:30 19.500 TL
47 1994 Fiat/Tofaş SAHİN 1.6 Çanakkale 7.5.2026 11:30 9.500 TL
48 2025 Motorsiklet RKS FRECCIA 150 İstanbul 7.5.2026 11:30 10.500 TL
49 2001 Seat IBIZA STELLA 1.6 Malatya 7.5.2026 11:30 25.000 TL
50 2024 Motorsiklet RKS M250 Mersin 7.5.2026 11:30 13.500 TL
51 2016 Skoda SUPERB STYLE 1.4 TSI ACT 150 Adana 7.5.2026 11:30 21.000 TL
52 2025 Motorsiklet KYMCO SKYTOWN 125 İstanbul 7.5.2026 11:30 16.000 TL
53 2004 Lada VEGA HB 1.5 16V Kocaeli 7.5.2026 11:30 11.500 TL
54 1997 Mitsubishi L300 PANEL VAN Kocaeli 7.5.2026 11:30 23.000 TL
55 2024 Motorsiklet CFMOTO 250 SR Samsun 7.5.2026 11:30 14.500 TL
56 1993 Toyota CORONA 2.0 GLI Kocaeli 7.5.2026 11:30 12.500 TL
57 1998 Renault 19 EUROPA 1.6 RNE Ordu 7.5.2026 12:00 58.000 TL
58 1987 Renault 12 TSW Elazığ 7.5.2026 12:00 71.500 TL
59 2024 Motorsiklet TVS RAIDER Ankara 7.5.2026 12:00 27.000 TL
60 2022 Motorsiklet BAJAJ DOMINAR D 250 İstanbul 7.5.2026 12:00 62.500 TL
61 1999 Fiat/Tofaş KARTAL1.6 i.e. Adana 7.5.2026 12:00 35.000 TL
62 2001 Peugeot 306 PLATINUM 1.6 4 KAPI Yozgat 7.5.2026 12:00 61.000 TL
63 2021 Motorsiklet BAJAJ DOMINAR 250 Adana 7.5.2026 12:00 27.500 TL
64 2003 Fiat/Tofaş DOBLO CARGO COMBİ 1.9D Rize 7.5.2026 12:00 27.500 TL
65 1994 Fiat/Tofaş DOGAN S Çanakkale 7.5.2026 12:00 26.000 TL
66 1999 Fiat/Tofaş TIPO 1.6 i.e. SLX Ankara 7.5.2026 12:00 25.500 TL
67 2008 Fiat/Tofaş DOBLO CARGO 1.3 MULTIJET ACTIVE İstanbul 7.5.2026 12:00 46.000 TL
68 2016 Motorsiklet HONDA PCX 150 İstanbul 7.5.2026 12:00 45.500 TL
69 1998 Opel CORSA 1.4i 16V GLS Kocaeli 7.5.2026 12:00 69.500 TL
70 2002 Citroen XSARA 2 CLIM 1.6i 5 KAPI Ankara 7.5.2026 12:00 43.500 TL
71 1992 Renault R9 1.4 SPRİNG Ordu 7.5.2026 13:30 88.000 TL
72 2005 Citroen C3 1.4 HDI X 5 KAPI İstanbul 7.5.2026 13:30 123.500 TL
73 2004 Peugeot 307 1.6 XR 5 KAPI Ankara 7.5.2026 13:30 122.000 TL
74 2006 Fiat/Tofaş PALIO 1.4 FIRE ACTIVE Ankara 7.5.2026 13:30 106.500 TL
75 1996 Honda CIVIC 1.6 HB İstanbul 7.5.2026 13:30 123.500 TL
76 2000 Peugeot 206 GTI 2.0 Aksaray 7.5.2026 13:30 110.500 TL
77 2008 Fiat/Tofaş ALBEA SOLE 1.3 MULTİJET Konya 7.5.2026 13:30 93.000 TL
78 1998 Mitsubishi L300 CAMLIVAN İstanbul 7.5.2026 13:30 80.000 TL
79 2008 Renault SYMBOL 1.5 DCI EXTREME (65) Sakarya 7.5.2026 13:30 78.500 TL
80 1996 Volkswagen GOLF CL 1.8 Ankara 7.5.2026 13:30 78.000 TL
81 2000 Renault SCENIC 1.6 16V RXT OV Bursa 7.5.2026 13:30 95.000 TL
82 2002 Bmw 316 ti COMPACT Kastamonu 7.5.2026 13:30 74.000 TL
83 2017 Suzuki BALENO 1.2 TECHNO AT İstanbul 7.5.2026 13:30 119.000 TL
84 2002 Volkswagen POLO 1.4 COMFORTLİNE Bursa 7.5.2026 13:30 81.000 TL
85 2009 Peugeot PARTNER TEPEE PREMIUM 1.6 HDI Ardahan 7.5.2026 14:00 193.000 TL
86 2015 Renault SYMBOL TOUCH 1.2 16V 75 Ankara 7.5.2026 14:00 205.000 TL
87 2023 Motorsiklet PEUGEOT XP 400 GT SUV Ankara 7.5.2026 14:00 146.000 TL
88 2005 Ford C-MAX 1.6 TDCİ GHIA Aksaray 7.5.2026 14:00 168.000 TL
89 2017 Ford TOURNEO CUSTOM 2.0 8+1 Adana 7.5.2026 14:00 245.000 TL
90 2012 Ford TRANSIT 300 S KOMBI VAN Ankara 7.5.2026 14:00 215.500 TL
91 2015 Dacia SANDERO STEPWAY 1.5 DCI 90 Ankara 7.5.2026 14:00 238.000 TL
92 2005 Fiat/Tofaş STILO 1.6 DYNAMIC 3 KAPI Ankara 7.5.2026 14:00 126.000 TL
93 2009 Fiat/Tofaş DOBLO COMBI 1.3 MULTIJET ACTIVE İstanbul 7.5.2026 14:00 151.500 TL
94 2006 Kia RIO 1.5 CRDI 4NB COMFORT Sakarya 7.5.2026 14:00 170.000 TL
95 2009 Renault CLIO HB EXPRESSION 1.5 DCI İstanbul 7.5.2026 14:00 144.500 TL
96 2009 Ford FOCUS 1.6 HB TITANIUM İstanbul 7.5.2026 14:00 244.000 TL
97 2011 Hyundai i20 TROY 1.2 DOHC 78 PS TEAM İzmir 7.5.2026 14:00 152.000 TL
98 2023 Citroen C4 X FEEL BOLD 1.2 PURETECH 130 EAT8 Eskişehir 7.5.2026 14:00 201.000 TL
99 2007 Volkswagen POLO 1.4 TDI TRENDLİNE Ankara 7.5.2026 14:30 274.000 TL
100 1994 Hino KAMYON FB 112 Amasya 7.5.2026 14:30 248.500 TL
101 2010 Hyundai GETZ 1.4 START İstanbul 7.5.2026 14:30 295.500 TL
102 2014 Opel ASTRA SEDAN 1.6 DIZEL 136 SPORT Ankara 7.5.2026 14:30 327.000 TL
103 2012 Fiat/Tofaş PUNTO EVO 5K MY LIFE 1.4 FIRE (77) İstanbul 7.5.2026 14:30 271.000 TL
104 2006 Ford FUSION 1.4i TDCi COMFORT ASM Tekirdağ 7.5.2026 14:30 254.000 TL
105 2011 Renault MEGANE III HB EXPRESSION 1.5 DCI 85 Yalova 7.5.2026 14:30 266.500 TL
106 2007 Honda JAZZ 1.4 LS CVT İstanbul 7.5.2026 14:30 317.500 TL
107 1998 Mercedes E 200 2.0 AVANGARDE Ankara 7.5.2026 14:30 300.500 TL
108 2011 Mercedes VITO MINIBUS MN328 113 CDI (8+1) İstanbul 7.5.2026 14:30 329.000 TL
109 2025 Ford TRANSIT COURIER VAN 1.5 D 100 TREND İstanbul 7.5.2026 14:30 367.500 TL
110 2012 Volkswagen POLO 1.6 TDI COMFORTLINE (90) Ankara 7.5.2026 14:30 365.000 TL
111 2015 Dacia SANDERO STEPWAY 1.5 DCI 90 EURO5 İstanbul 7.5.2026 14:30 270.000 TL
112 2015 Iveco 35C15 İstanbul 7.5.2026 14:30 363.000 TL
113 2008 Bmc CEKICI PRO 827 4x2 Kocaeli 7.5.2026 15:00 374.000 TL
114 2012 Volkswagen CRAFTER SERVIS 19+1 ELWB 163 MIDLINE Antalya 7.5.2026 15:00 374.000 TL
115 2012 Alfa Romeo GIULIETTA 1.6 JTD 105 DISTINCTIVE Ankara 7.5.2026 15:00 380.500 TL
116 2019 Renault CLIO HB TOUCH 1.5 DCI 90 S&S Ankara 7.5.2026 15:00 400.000 TL
117 2016 Dacia LOGAN MCV AMBIANCE 1.5 DCI 75 İstanbul 7.5.2026 15:00 372.000 TL
118 2016 Ford TOURNEO COURIER 1.5 TDCI TREND Ankara 7.5.2026 15:00 477.500 TL
119 2023 Fiat/Tofaş DOBLO CARGO MAXI 1.5 100 BLUEHDI Ankara 7.5.2026 15:00 398.000 TL
120 2012 Seat IBIZA 1.2 TSI (105) STYLE İstanbul 7.5.2026 15:00 406.500 TL
121 2022 Dacia SANDERO COMFORT 1.0 TURBO X-TRONIC 90 İstanbul 7.5.2026 15:00 465.500 TL
122 2016 Toyota YARIS 1.33 STYLE X-TREND MULTIDRIVE S Ankara 7.5.2026 15:00 464.500 TL
123 2018 Ford CARGO 1842 T Ankara 7.5.2026 15:00 390.500 TL
124 2020 Dacia DUSTER COMFORT 1.5 BLUE DCI 115 4x4 Sinop 7.5.2026 15:00 401.000 TL
125 2025 Togg T10F V2 Antalya 7.5.2026 15:00 447.000 TL
126 2015 Bmc CEKICI PRO 1144 ACX 4x2 E5 Ankara 7.5.2026 15:00 430.000 TL
127 2024 Renault MEGANE SEDAN 1.3 TCE Ankara 7.5.2026 15:15 210.000 TL
128 2025 Nissan QASHQAI 1.3 DIG-T İstanbul 7.5.2026 15:15 210.000 TL
129 2025 Chery TIGGO 7 PRO MAX 1.6 T-GDI Adana 7.5.2026 15:15 90.000 TL
130 2019 Audi A3 SPORTBACK 30 TDI DESIGN Samsun 7.5.2026 15:15 653.000 TL
131 2010 Toyota COROLLA SEDAN 1.4D-4D Samsun 7.5.2026 15:15 155.500 TL
132 2021 Renault TALIANT JOY 1.0 SCE 65 İzmir 7.5.2026 15:15 500 TL
133 2012 Mercedes SPRINTER 415 CDI Kocaeli 7.5.2026 15:15 150.000 TL
134 2025 Mercedes GLC 180 COUPE Ankara 7.5.2026 15:15 3.950.000 TL
135 2020 Peugeot 5008 1.5 BLUEHDI Mersin 7.5.2026 15:15 210.000 TL
136 2025 Chery TIGGO 7 1.6 T-GDI Ankara 7.5.2026 15:15 238.000 TL
137 2013 Ford FOCUS 1.6 TDCI Ankara 7.5.2026 15:15 150.000 TL
138 2023 Renault EXPRESS COMBI JOY 1.5 BLUEDCI Mardin 7.5.2026 15:15 150.000 TL
139 2021 Toyota COROLLA 1.5 SEDAN Konya 7.5.2026 15:15 210.000 TL
140 2025 Hyundai BAYON 1.0 T-GDI Tekirdağ 7.5.2026 15:15 100.200 TL
141 2024 Chery OMODA 5 1.6 T-GDI Uşak 7.5.2026 15:15 501.000 TL
142 2025 Jaecoo JAECOO 7 1.6 İstanbul 7.5.2026 15:15 1.000 TL
143 2016 Volkswagen PASSAT 1.6 TDI BMT Ankara 7.5.2026 15:15 1.000 TL
144 2024 Honda JAZZ 1.5 E-HEV İstanbul 7.5.2026 15:15 100.200 TL
145 2023 Suzuki VITARA 1.4 HYBRID Ankara 7.5.2026 15:15 100.200 TL
146 2025 Byd DOLPHIN 150KW Tekirdağ 7.5.2026 15:15 100.200 TL
147 2016 Volkswagen POLO 1.0 TRENDLINE Çanakkale 7.5.2026 15:15 10.000 TL
148 2025 Citroen E-C4 X MAX Ankara 7.5.2026 15:15 100.200 TL
149 2024 Toyota PROACE CITY CARGO 1.5 D Balıkesir 7.5.2026 15:15 1.000 TL
150 2019 Volkswagen CADDY 2.0 TDI İstanbul 7.5.2026 15:15 1.000 TL
151 2023 Iveco CEKICI S-WAY Artvin 7.5.2026 15:15 50.000 TL
152 2011 Renault CEKICI PREMIUM 430.19 T 4X2 Konya 7.5.2026 15:15 281.000 TL
153 2017 Renault MEGANE SEDAN 1.5 DCI Hatay 7.5.2026 15:15 1.000 TL
154 2014 Ford FOCUS III MCA TREND X 1.6 TDCI 95 4K Adana 7.5.2026 15:30 1.000 TL
155 2017 Renault CLIO 1.5 JOY İstanbul 7.5.2026 15:30 1.000 TL
156 2021 Citroen BERLINGO FEEL STIL 1.5 BLUEHDI 130 S&S EAT8 İstanbul 7.5.2026 15:30 1.000 TL
157 2022 Bmw 520i SEDAN LCI 1.6 170 M SPORT Ankara 7.5.2026 15:30 1.000 TL
158 2019 Ford TOURNEO COURIER KOMBI 1.5 TDCI 95 DELUXE İstanbul 7.5.2026 15:30 1.000 TL
159 2023 Motorsiklet BEATRIX 150 Hatay 7.5.2026 15:30 1.000 TL
160 2017 Fiat/Tofaş EGEA S.WAGON 1.6 E-TORQ 110 İzmir 7.5.2026 15:30 1.000 TL
161 2023 Honda ACTIVA 125 İstanbul 7.5.2026 15:30 1.000 TL
162 2012 Nissan MICRA 1.2 5 DRS PUNCH CVT Denizli 7.5.2026 15:30 1.000 TL
163 2012 Fiat/Tofaş LINEA 1.3 MULTIJET İstanbul 7.5.2026 15:30 1.000 TL
164 1985 Renault 9 GTE BROADWAY İzmir 7.5.2026 15:30 1.000 TL
165 2018 Skoda OCTAVIA 1.6 TDI İstanbul 7.5.2026 15:30 1.000 TL
166 2013 Honda CIVIC 1,6İ VTEC Eskişehir 7.5.2026 15:30 1.000 TL
167 2017 Citroen C4 CACTUS 1.6 E-HDI 92 ETG6 S S FEEL İstanbul 7.5.2026 15:30 1.000 TL
168 2015 Ford TRANSIT CUSTOM VAN 310 S (100) TREND Adana 7.5.2026 15:30 1.000 TL
169 2022 Motorsiklet DOMINAR D 250 Ankara 7.5.2026 15:30 1.000 TL
170 1995 Nissan NISSAN PICK UP 2.5 COUNTRY DC AB ÇİFT Manisa 7.5.2026 15:30 1.000 TL
171 2001 Fiat/Tofaş DOBLO 1.9D Kastamonu 7.5.2026 15:30 1.000 TL
172 2017 Audi A6 SEDAN 2.0 TDI QUATTRO Antalya 7.5.2026 15:30 1.000 TL
173 2023 Honda FORZA NSS250A İstanbul 7.5.2026 15:30 1.000 TL
174 2007 Fiat/Tofaş DOBLO CARGO 1.3 MULTIJET Ankara 7.5.2026 15:30 1.000 TL
175 2006 Hyundai ACCENT 1.5 CRDI ADMIRE (Y) Sakarya 7.5.2026 15:30 1.000 TL
176 2015 Seat TOLEDO 1.4 TDI 90 STYLE DSG Trabzon 7.5.2026 15:30 1.000 TL
177 2015 Volkswagen GOLF 1.4 TSI BMT 125 COMFORTLINE DSG İstanbul 7.5.2026 15:30 1.000 TL
178 2021 Dacia DOKKER VAN AMBIANCE ECO-G 110 Şehir Seç 7.5.2026 15:30 1.000 TL
179 2014 Renault SYMBOL JOY 1.5 DCI 90 Konya 7.5.2026 15:30 1.000 TL
180 2023 Volkswagen T-ROC 1.5 TSI 150 LIFE DSG Şehir Seç 7.5.2026 15:30 1.000 TL
181 2023 Kia CERATO 1.6 128 AT ELEGANCE İstanbul 7.5.2026 15:30 1.000 TL
182 2009 Opel ASTRA HB 1.3 CDTI ENJOY ELEGANCE (90) İzmir 7.5.2026 15:30 1.000 TL
183 2013 Volkswagen POLO 1.6 TDI COMFORTLINE (90) İzmir 7.5.2026 15:30 1.000 TL
184 2012 Fiat/Tofaş LINEA 1.3 MULTIJET Erzurum 7.5.2026 15:30 1.000 TL
185 2005 Renault MASTER 15+1 MINIBUS İstanbul 7.5.2026 15:30 1.000 TL
186 2015 Renault TRAFIC PASSENGER 9+1 CONFORT 1.6 DCI 115 E5 İstanbul 7.5.2026 15:30 1.000 TL
187 2016 Fiat/Tofaş EGEA SEDAN 1.4 FIRE Mersin 7.5.2026 15:30 1.000 TL
188 2019 Peugeot 508 ALLURE 1.5 BLUEHDI 130 EAT Adana 7.5.2026 15:30 1.000 TL
189 2022 Ford TRANSIT MINIBUS 440E 16+1 170 DELUXE E6.1 Hatay 7.5.2026 15:30 1.000 TL
190 2006 Renault ESPACE 3.0 DCI OV Kayseri 7.5.2026 15:30 1.000 TL
191 2005 Renault KANGOO MULTIX AUTHENTIQUE 1.5 DCI Sinop 7.5.2026 15:30 1.000 TL
192 2012 Skoda OCTAVIA ELEGANCE 1.6 TDI 105 Kocaeli 7.5.2026 15:30 1.000 TL
193 2022 Bmw 520I SEDAN LCI 1.6 170 LUXURY LINE Samsun 7.5.2026 15:30 1.000 TL
194 2011 Mazda 3 1,6 TOURİNG Denizli 7.5.2026 15:30 1.000 TL
195 2019 Motorsiklet X-MAX 125 İRON İstanbul 7.5.2026 15:30 1.000 TL
196 2024 Motorsiklet NEWLIGTH PRO Tekirdağ 7.5.2026 15:30 1.000 TL
197 2023 Fiat/Tofaş FIORINO CARGO 1.3 M.JET 95 E6D FINAL Gaziantep 7.5.2026 15:30 1.000 TL
198 2021 Motorsiklet SPONTİNİ 110 Kocaeli 7.5.2026 15:30 1.000 TL
199 2024 Motorsiklet NİNJA ZX-4R Kayseri 7.5.2026 15:30 1.000 TL
200 2016 Peugeot 208 ACTIVE 1.6 HDI 92 İstanbul 7.5.2026 15:30 1.000 TL
201 2016 Fiat/Tofaş LINEA POP 1.3 MULTIJET 95 Tokat 7.5.2026 15:30 1.000 TL
202 2023 Skoda SCALA 1.0 TSI 110 DSG ELITE İstanbul 7.5.2026 15:30 1.000 TL
203 2010 Fiat/Tofaş LINEA 1.3 MULTIJET ACTIVE PLUS (90) İstanbul 7.5.2026 15:30 1.000 TL
204 2006 Suzuki GRAND VITARA 2.0 5 KAPI İstanbul 7.5.2026 15:30 1.000 TL
205 2017 Mercedes ACTROS 1842 Aydın 7.5.2026 15:30 1.000 TL
206 2015 Audi A4 2.0 TDI 150 MULTITRONIC PI Antalya 7.5.2026 15:30 1.000 TL
207 2013 Peugeot 301 ACTIVE 1.2 VTI 72 Antalya 7.5.2026 15:30 1.000 TL
208 2004 Volkswagen POLO 1.4 COMFORTLINE 4 KAPI (75) İstanbul 7.5.2026 15:30 1.000 TL
209 2016 Mercedes C 200 D 1.6 EXCLUSIVE Mersin 7.5.2026 15:30 1.000 TL
210 2022 Fiat/Tofaş FIORINO COMBI PREMIO 1.3 M.JET 95 E6D FINAL Konya 7.5.2026 15:30 1.000 TL
211 2021 Kia RIO 1.4 100 AT ELEGANCE Sakarya 7.5.2026 15:30 1.000 TL
212 2011 Mitsubishi L 200 CIFT KABIN KAMYONET 4x2 INVİTE Şehir Seç 7.5.2026 15:30 1.000 TL
213 2015 Renault SYMBOL JOY 1.5 DCI 75 İstanbul 7.5.2026 15:30 1.000 TL
214 2006 Renault TRAFIC MULTIX 5+1 Konya 7.5.2026 15:30 1.000 TL
215 2024 Renault KANGOO MULTIX TECHNO 1.3 TCE 130 Tekirdağ 7.5.2026 15:30 1.000 TL
216 2012 Citroen C4 1.6 HDI (112) CONFORT İstanbul 7.5.2026 15:30 1.000 TL
217 2025 Fiat/Tofaş TOPOLİNO Zonguldak 7.5.2026 15:30 1.000 TL
218 2024 Hyundai I20 FL 1.4 MPI 100 STYLE OV Bursa 7.5.2026 15:30 1.000 TL
219 2022 Dorse/Römork HASTRAILER TENTELİ TİP Ankara 7.5.2026 15:30 1.000 TL
220 2024 Honda ACTIVA 125 Düzce 7.5.2026 15:30 1.000 TL
221 2017 Fiat/Tofaş FIORINO COMBI 1.3 M.JET 75 EMOTİON Kayseri 7.5.2026 15:30 1.000 TL
222 1994 Fiat/Tofaş SAHIN 1.6 Ankara 7.5.2026 15:30 1.000 TL
223 1998 Fiat/Tofaş DOĞAN S Osmaniye 7.5.2026 15:30 1.000 TL
224 1998 Opel CORSA SWING 1.4 5 KAPI Ankara 7.5.2026 15:30 1.000 TL
225 2020 Motorsiklet SCOOTER 125 ZNU İstanbul 7.5.2026 15:30 1.000 TL
226 2023 Motorsiklet DOMINAR D 400 UG E5 Konya 7.5.2026 15:30 1.000 TL
227 2011 Ford MONDEO TITANIUM 1.6i SEDAN (125) Ankara 7.5.2026 15:30 1.000 TL
228 2017 Fiat/Tofaş FIORINO COMBI 1.3 M.JET 75 E5 POP Kütahya 7.5.2026 15:30 1.000 TL
229 2011 Opel CORSA 5 KAPI 1.2i T.PORT ENJOY 111 Ankara 7.5.2026 15:30 1.000 TL
230 2004 Mazda B-2500 CIFT KABIN 2.5 TD KAMYONET 4X2 Antalya 7.5.2026 15:30 1.000 TL
231 2025 Opel FRONTERA-E 83 KW GS İstanbul 7.5.2026 15:30 1.000 TL
232 2014 Suzuki GW 250 INAZUMA İstanbul 7.5.2026 15:30 1.000 TL
233 2004 Ford FIESTA 1.4 Isparta 7.5.2026 15:30 1.000 TL
234 2019 Daelım DAELIM SV250R Adana 7.5.2026 15:30 1.000 TL
235 2025 Skoda SUPERB 1.5 TSI MHEV 150 DSG Bingöl 7.5.2026 15:30 1.000 TL
236 1988 Renault R12 TSW Uşak 7.5.2026 15:30 1.000 TL
237 2019 Motorsiklet X-MAX 250 İstanbul 7.5.2026 15:30 1.000 TL
238 2012 Dorse/Römork OKT TRAILER SİLOBAS YARI RÖMORK Aydın 7.5.2026 15:30 1.000 TL
239 2016 Volkswagen TRANSPORTER CAMLIVAN 2.0 TDI Zonguldak 7.5.2026 15:30 1.000 TL
240 2017 Dacia DUSTER 1.5 DCI Balıkesir 7.5.2026 15:30 1.000 TL
241 2023 Skoda KAMIQ 1.5 TSI Diyarbakır 7.5.2026 15:30 1.000 TL
242 2020 Renault SYMBOL 0.9 TCE Bursa 7.5.2026 15:30 1.000 TL
243 2006 Hyundai GETZ 1.5 CRDİ Antalya 7.5.2026 15:30 1.000 TL
244 1999 Honda CIVIC 1.6 SEDAN Kocaeli 7.5.2026 15:30 1.000 TL
245 2024 Motorsiklet AROME 125 Kocaeli 7.5.2026 15:30 1.000 TL
246 1993 Fiat/Tofaş KARTAL 1.6 Kayseri 7.5.2026 15:30 1.000 TL
247 2008 Ford T. CONNECT 1.8 TDCI Van 7.5.2026 15:30 1.000 TL
248 2024 Motorsiklet N MAX 125 İstanbul 7.5.2026 15:30 1.000 TL
249 2024 Ford TOURNEO COURIER KOMBI 1.5 TDCI Mardin 7.5.2026 15:30 1.000 TL
250 2015 Volkswagen GOLF 1.6 TDI Mersin 7.5.2026 15:30 1.000 TL
251 2006 Fiat/Tofaş DOBLO 1.3 JTD Mardin 7.5.2026 15:30 1.000 TL
252 2023 Motorsiklet PRIDE 125 İstanbul 7.5.2026 15:30 1.000 TL
253 1993 Opel VECTRA 2.0 Denizli 7.5.2026 15:30 1.000 TL
254 2004 Renault MEGANE SEDAN 1.6 DYNAMIQUE İzmir 7.5.2026 15:30 1.000 TL
255 2011 Hyundai i30 1.6 CRDi TEAM Mersin 7.5.2026 15:30 1.000 TL
256 2021 Renault MASTER 2.3 DCİ Denizli 7.5.2026 15:30 1.000 TL
257 2015 Volkswagen GOLF 1.6 TDI BMT COMFORTLINE Mersin 7.5.2026 15:30 1.000 TL
258 2003 Mercedes E 270 CDI Kayseri 7.5.2026 15:30 1.000 TL
259 2004 Ford FOCUS 1.6 GHİA Zonguldak 7.5.2026 15:30 1.000 TL
260 2015 Renault SYMBOL JOY 1.5 DCI Ankara 7.5.2026 15:30 1.000 TL
261 2024 Motorsiklet PESARO 50X Gümüşhane 7.5.2026 15:30 1.000 TL
262 2007 Renault MEGANE HB PRIVILEGE 1.6 İstanbul 7.5.2026 15:30 1.000 TL
263 2020 Renault MEGANE 1.3 TCE Şehir Seç 7.5.2026 15:30 1.000 TL
264 2020 Dacia DUSTER 1.5 BLUE DCI 115 Aksaray 7.5.2026 15:30 1.000 TL
265 2025 Opel CORSA 1.2 İstanbul 7.5.2026 15:30 1.000 TL
266 2012 Motorsiklet SCARABAEO 200 Adana 7.5.2026 15:30 1.000 TL
267 2023 Motorsiklet LAMBRETTA V125 SPECIAL İstanbul 7.5.2026 15:30 1.000 TL
268 2002 Renault LAGUNA 1.6 16V RXE Sakarya 7.5.2026 15:30 1.000 TL
269 2015 Ford TRANSIT 14+1 Ankara 7.5.2026 15:30 1.000 TL
270 2017 Toyota COROLLA 1.6 Adana 7.5.2026 15:30 1.000 TL
271 2025 Peugeot 408 1.2 PURETECH Ankara 7.5.2026 15:30 1.000 TL
272 2023 Motorsiklet PULSAR RS 200 İstanbul 7.5.2026 15:30 1.000 TL
273 2010 Opel INSIGNIA NB COSMO 1.6 Tekirdağ 7.5.2026 15:30 1.000 TL
274 2003 Bmw 530IA Ankara 7.5.2026 15:30 1.000 TL
275 2025 Motorsiklet FRECCIA 150 İstanbul 7.5.2026 15:30 1.000 TL
276 2023 Motorsiklet MT 07 ABS MTN690 Kayseri 7.5.2026 15:30 1.000 TL
277 2005 Ford TRANSIT 330 S İstanbul 7.5.2026 15:30 1.000 TL
278 2002 Renault CLIO SYMBOL II EXPRESSION 1.5 DCI Ankara 7.5.2026 15:30 1.000 TL
279 2015 Peugeot 508 1.6 e-HDI Afyonkarahisar 7.5.2026 15:30 1.000 TL
280 1996 Renault R9 BROADWAY 1.4 Kastamonu 7.5.2026 15:30 1.000 TL
281 2005 Renault MEGANE 1.5 DCI Çanakkale 7.5.2026 15:30 1.000 TL
282 1999 Renault R19 EUROPA Kırşehir 7.5.2026 15:30 1.000 TL
283 2025 Motorsiklet MAX T EASY 125 Eskişehir 7.5.2026 15:30 1.000 TL
284 2015 Mercedes CEKICI AXOR 1840 LS Burdur 7.5.2026 15:30 1.000 TL
285 2021 Hyundai i20 1.4 MPI Ankara 7.5.2026 15:30 1.000 TL
286 1996 Toyota COROLLA 1.3 XL Antalya 7.5.2026 15:30 1.000 TL
287 2011 Porsche PANAMERA TURBO Tekirdağ 7.5.2026 15:30 1.000 TL
288 1999 Hyundai ACCENT 1.3 LX SEDAN Samsun 7.5.2026 15:30 1.000 TL
289 1999 Fiat/Tofaş PALIO 1.4 Giresun 7.5.2026 15:30 1.000 TL
290 2006 Mercedes C 200 K Düzce 7.5.2026 15:30 1.000 TL
291 2023 Motorsiklet CFMOTO ZFORCE 1000 SPORT R İzmir 7.5.2026 15:30 1.000 TL
292 2006 Fiat/Tofaş DOBLO CARGO 1.3 MULTIJET Kırklareli 7.5.2026 15:30 1.000 TL
293 2022 Motorsiklet MONDIAL 125 DRIFT L Eskişehir 7.5.2026 15:30 1.000 TL
294 2012 Fiat/Tofaş FIORINO 1.4 İzmir 7.5.2026 15:30 1.000 TL
295 2023 Motorsiklet MTX 125 Sakarya 7.5.2026 15:30 1.000 TL
296 2021 Citroen C3 1.2 PURETECH İzmir 7.5.2026 15:30 1.000 TL
297 2024 Renault CLIO 1.0 TCE Antalya 7.5.2026 15:30 1.000 TL
298 2021 Fiat/Tofaş EGEA CROSS 1.4 FIRE İzmir 7.5.2026 15:30 1.000 TL
299 2020 Ford TOURNEO CONNECT KOMBI 1.5 ECOBLUE İstanbul 7.5.2026 15:30 1.000 TL
300 2007 Ford FIESTA VAN 1.4 TDCİ Kayseri 7.5.2026 15:30 1.000 TL
301 2008 Seat LEON 1.6 İzmir 7.5.2026 15:30 1.000 TL
302 2012 Peugeot 208 1.4 HDI Samsun 7.5.2026 15:30 1.000 TL
303 2001 Mitsubishi CARISMA 1.6 COMFORT SEDAN Şehir Seç 7.5.2026 15:30 1.000 TL
304 2015 Peugeot PARTNER TEPEE 1.6 HDI Ordu 7.5.2026 15:30 1.000 TL
305 2021 Volkswagen POLO 1.0 TSI Ankara 7.5.2026 15:30 1.000 TL
306 2014 Toyota COROLLA 1.4 D-4D ADVANCE M/M Eskişehir 7.5.2026 15:30 1.000 TL
307 2016 Peugeot 2008 1.6 E-HDI Ankara 7.5.2026 15:30 1.000 TL
308 2017 Ford FOCUS SEDAN 1.5 TDCI Kocaeli 7.5.2026 15:30 1.000 TL
309 2026 Dorse/Römork YASİN ATEŞ SEMİ TRAİLER YARI RÖMORK Konya 7.5.2026 15:30 1.000 TL
310 2025 Porsche MACAN 4 İstanbul 7.5.2026 15:30 1.000 TL
311 2014 Fiat/Tofaş DOBLO CARGO 1.3 M.JET Şehir Seç 7.5.2026 15:30 1.000 TL
312 2025 Ford FOCUS 1.5 ECOBLUE 115 İstanbul 7.5.2026 15:30 1.000 TL
313 2014 Volkswagen POLO 1.2 TSI İstanbul 7.5.2026 15:30 1.000 TL
314 2015 Mercedes KAMYON AXOR 4140 Trabzon 7.5.2026 15:30 1.000 TL
315 2015 Bmw S 1000 RR İstanbul 7.5.2026 15:30 1.000 TL
316 2015 Mercedes KAMYON AXOR 4140 Trabzon 7.5.2026 15:30 1.000 TL
317 2020 Renault CLIO 1.0 TCE X-TRONIC Osmaniye 7.5.2026 15:30 1.000 TL
318 2012 Toyota COROLLA SEDAN 1.4 4 4D Ankara 7.5.2026 15:30 1.000 TL
319 2014 Renault CLIO HB 1.5 DCI Ankara 7.5.2026 15:30 1.000 TL
320 2018 Skoda SUPERB 1.6 TDI CR Samsun 7.5.2026 15:30 1.000 TL
321 2015 Opel CORSA 1.4 Kayseri 7.5.2026 15:30 1.000 TL
322 2010 Toyota AVENSIS 2.0 D Samsun 7.5.2026 15:30 1.000 TL
323 1999 Toyota COROLLA 1.3 TERRA İstanbul 7.5.2026 15:30 1.000 TL
324 2011 Renault KANGOO 1.5 dCi Kocaeli 7.5.2026 15:30 1.000 TL
325 1992 Renault BROADWAY Sinop 7.5.2026 15:30 1.000 TL
326 2020 Renault CLIO HB TOUCH 0.9 TCE Erzurum 7.5.2026 15:30 1.000 TL
327 2016 Volkswagen TIGUAN 1.4 TSI Gaziantep 7.5.2026 15:30 1.000 TL
328 2020 Bmw 320i Antalya 7.5.2026 15:30 1.000 TL
329 2014 Volkswagen POLO 1.4 TDI Sivas 7.5.2026 15:30 1.000 TL
330 2024 Volvo S60 B5 PLUS DARK İzmir 7.5.2026 15:30 1.000 TL
331 2012 Ford FIESTA TITANIUM 5K 1.4i Malatya 7.5.2026 15:30 1.000 TL
332 2012 Ford TRANSIT 350 L VAN Ankara 7.5.2026 15:30 1.000 TL
333 2024 Fiat/Tofaş DUCATO 16+1 İstanbul 7.5.2026 15:30 1.000 TL
334 2014 Ford TRANSIT COURIER VAN 1.6 TDCI Malatya 7.5.2026 15:30 1.000 TL
335 2015 Mercedes SPRINTER 316 CDI MINIBUS 16+1 İstanbul 7.5.2026 15:30 1.000 TL
336 2020 Tumosan 6065 4WD Hatay 7.5.2026 15:30 1.000 TL
337 2007 Audi A6 2.0 T FSI MULTIRONIC Kocaeli 7.5.2026 15:30 1.000 TL
338 2017 Renault MEGANE SEDAN 1.5 DCI İzmir 7.5.2026 15:30 1.000 TL
339 2007 Ford T. CONNECT KOMBI K210S 1.8 TDDi Bitlis 7.5.2026 15:30 1.000 TL
340 2024 Motorsiklet RKS NEW LIGHT PRO (GST125T-16) Bursa 7.5.2026 15:30 1.000 TL
341 2004 Ford T.CONNECT VAN 1.8 TDCi Manisa 7.5.2026 15:30 1.000 TL
342 2023 Motorsiklet KUBA PESARO 125 X Amasya 7.5.2026 15:30 1.000 TL
343 2022 Motorsiklet SFC MINI 50 Adana 7.5.2026 15:30 1.000 TL
344 1990 Fiat/Tofaş DOĞAN 1.6 Denizli 7.5.2026 15:30 1.000 TL
345 2015 Renault CLIO SPORT TOURER JOY 1.5 DCI 75 İzmir 7.5.2026 15:30 1.000 TL
346 2011 Chevrolet CAPTIVA 2.0 Konya 7.5.2026 15:30 1.000 TL
347 2025 Motorsiklet FURY 110i Kayseri 7.5.2026 15:30 1.000 TL
348 2024 Dacia SANDERO 1,0 Diyarbakır 7.5.2026 15:30 1.000 TL
349 2023 Honda PCX 125 İstanbul 7.5.2026 15:30 1.000 TL
350 2016 Fiat/Tofaş DAILY 70C15 Bursa 7.5.2026 15:30 1.000 TL
351 2005 Land Rover FREELANDER 2.0 Td4 İstanbul 7.5.2026 15:30 1.000 TL
352 2015 Renault KADJAR 1.5 DCI Ankara 7.5.2026 15:30 1.000 TL
353 2018 Volkswagen TOUAREG 3.0 TDI Sakarya 7.5.2026 15:30 1.000 TL
354 2021 Renault CLIO HB 1.0 Zonguldak 7.5.2026 15:30 1.000 TL
355 2011 Renault SYMBOL 1.5 DCI Antalya 7.5.2026 15:30 1.000 TL
356 2012 Opel MOKKA 1.6 Antalya 7.5.2026 15:30 1.000 TL
357 2005 Ford FOCUS 1.6i TREND Isparta 7.5.2026 15:30 1.000 TL
358 2023 Honda CIVIC SEDAN 1.5 Ankara 7.5.2026 15:30 1.000 TL
359 2015 Skoda OCTAVIA 1.6 TDI İstanbul 7.5.2026 15:30 1.000 TL
360 2015 Peugeot 308 HB 1.2 PURETECH İstanbul 7.5.2026 15:30 1.000 TL
361 2025 Chery TIGGO 7 PRO MAX Ankara 7.5.2026 15:30 1.000 TL
362 2011 Renault FLUENCE EXTREME 1.5 DCI Şehir Seç 7.5.2026 15:30 1.000 TL
363 2023 Citroen C4 X 1.2 PURETCH Gaziantep 7.5.2026 15:30 1.000 TL
364 2023 Honda PCX 125 Mersin 7.5.2026 15:30 1.000 TL
365 2011 Fiat/Tofaş FIORINO COMBI 1.3 M.JET EMOTION Ankara 7.5.2026 15:30 1.000 TL
366 2009 Toyota COROLLA 1,6 Samsun 7.5.2026 15:30 1.000 TL
367 2018 Ford FOCUS III MCA TITANIUM 1.5 TDCI Şanlıurfa 7.5.2026 15:30 1.000 TL
368 2016 Audi A6 2.0 TDI Konya 7.5.2026 15:30 1.000 TL
369 2014 Fiat/Tofaş DOBLO COMBI 1.6 M.JET Adana 7.5.2026 15:30 1.000 TL
370 1991 Renault L 422 Osmaniye 7.5.2026 15:30 1.000 TL
371 2017 Volkswagen PASSAT 1.6 TDI BMT Osmaniye 7.5.2026 15:30 1.000 TL
372 2002 Fiat/Tofaş DOGAN 1.6 İ.E. Samsun 7.5.2026 15:30 1.000 TL
373 2019 Skoda OCTAVIA 1.6 TDI Samsun 7.5.2026 15:30 1.000 TL
374 2016 Audi A4 2.0 TDI 190 S TRONIC Aydın 7.5.2026 15:30 1.000 TL
375 2020 Renault MEGANE 1.3 TCE Samsun 7.5.2026 15:30 1.000 TL
376 2011 Land Rover RANGE ROVER 3.6 TDV 8 İstanbul 7.5.2026 15:30 1.000 TL
377 2007 Peugeot PARTNER 2.0 HDI Antalya 7.5.2026 15:30 1.000 TL
378 1999 Fiat/Tofaş MAREA 1.6 SX Konya 7.5.2026 15:30 1.000 TL
379 2012 Opel ASTRA NB 1.6i (115) Diyarbakır 7.5.2026 15:30 1.000 TL
380 2023 Motorsiklet R250 İzmir 7.5.2026 15:30 1.000 TL
381 2023 Renault CLIO 1.0 TCE X-TRONIC İstanbul 7.5.2026 15:30 1.000 TL
382 2022 Audi A7 SPORTBACK 2.0 Osmaniye 7.5.2026 15:30 1.000 TL
383 2011 Renault MEGANE 1,5 DCI PRİVLAGE İstanbul 7.5.2026 15:30 1.000 TL
384 2012 Ford FIESTA 1.4 TDCi TREND Trabzon 7.5.2026 15:30 1.000 TL
385 2020 Renault TRAFIC PANELVAN GRANDCONFORT Kütahya 7.5.2026 15:30 1.000 TL
386 2020 Dorse/Römork SERT TREYLER DAMPERLİ Batman 7.5.2026 15:30 1.000 TL
387 2011 Audi A3 SPORTBACK 1.4 TFSI Batman 7.5.2026 15:30 1.000 TL
388 2008 Ford FIESTA 1.4 TDCİ COMFORT Afyonkarahisar 7.5.2026 15:30 1.000 TL
389 2012 Güleryüz COBRA OTOBUS Mersin 7.5.2026 15:30 1.000 TL
390 2016 Opel ASTRA NB 1.6 DIZEL Ankara 7.5.2026 15:30 1.000 TL
391 2008 Peugeot 206 SEDAN 1.4 COMFORT Ankara 7.5.2026 15:30 1.000 TL
392 2023 Renault MEGANE TOUCH 1.3 TCE Bursa 7.5.2026 15:30 1.000 TL
393 2025 Peugeot RIFTER ALLURE 1.5 BLUEHDI 130 Adana 7.5.2026 15:30 1.000 TL
394 2008 Fiat/Tofaş DOBLO COMBI 1.3 M.JET ACTİVE Balıkesir 7.5.2026 15:30 1.000 TL
395 2018 Motorsiklet MTN 250-A Ankara 7.5.2026 15:30 1.000 TL
396 2021 Peugeot 308 1,5 BLUEHDI İstanbul 7.5.2026 15:30 1.000 TL
397 1999 Mazda 323 1.5 SEDAN Balıkesir 7.5.2026 15:30 1.000 TL
398 2020 Dacia DUSTER 1.5 BLUE DCI Bursa 7.5.2026 15:30 1.000 TL
399 2010 Opel ASTRA HB CLASSIC 1.3 CDTi Şehir Seç 7.5.2026 15:30 1.000 TL
400 2010 Fiat/Tofaş LINEA 1.3 MULTIJET ACTIVE İstanbul 7.5.2026 15:30 1.000 TL
401 2017 Nissan QASHQAI 1.6 DCI Mersin 7.5.2026 15:30 1.000 TL
402 2025 Motorsiklet CASPER PRO 50 Uşak 7.5.2026 15:30 1.000 TL
403 2023 Togg T10X İstanbul 7.5.2026 15:30 1.000 TL
404 2016 Renault FLUENCE 1.5 DCİ Çanakkale 7.5.2026 15:30 1.000 TL
405 2006 Ford TRANSIT CONNECT T220 S Konya 7.5.2026 15:30 1.000 TL
406 2023 Motorsiklet SFC MINI 50 EC Sinop 7.5.2026 15:30 1.000 TL
407 2023 Honda DIO Ankara 7.5.2026 15:30 1.000 TL
408 2023 Renault CLIO 1,0 Aydın 7.5.2026 15:30 1.000 TL
409 2005 Tata INDICA 1.4 TDI Antalya 7.5.2026 15:30 1.000 TL
410 2013 Fiat/Tofaş LINEA 1.3 M.JET Mersin 7.5.2026 15:30 1.000 TL
411 2023 Renault TRAFIC PANELVAN GRAND CONFORT 2.0 DCİ Düzce 7.5.2026 15:30 1.000 TL
412 2023 Peugeot 3008 1.5 BLUEHDI Hatay 7.5.2026 15:30 1.000 TL
413 2025 Peugeot EXPERT VAN STANDART 1.5 BLUEHDI Ankara 7.5.2026 15:30 1.000 TL
414 2015 Nissan MICRA 1.2 MATCH Kırşehir 7.5.2026 15:30 1.000 TL
415 2016 Motorsiklet MT 25 Çankırı 7.5.2026 15:30 1.000 TL
416 2020 Benellı 125 S Ankara 7.5.2026 15:30 1.000 TL
417 2011 Isuzu D MAX CIFT KABIN K.NET 4x2 Manisa 7.5.2026 15:30 1.000 TL
418 2024 Motorsiklet MAX T EASY 125 Ankara 7.5.2026 15:30 1.000 TL
419 2024 Mini COUNTRYMAN E FAVOURED İstanbul 7.5.2026 15:30 1.000 TL
420 2023 Motorsiklet AROME 125 Kocaeli 7.5.2026 15:30 1.000 TL
421 2013 Toyota COROLLA 1.4 D-4D Artvin 7.5.2026 15:30 1.000 TL
422 1997 Mazda 323 SEDAN 1.6 Bilecik 7.5.2026 15:30 1.000 TL
423 2005 Fiat/Tofaş DOBLO 1.3 MULTIJET Samsun 7.5.2026 15:30 1.000 TL
424 1996 Fiat/Tofaş KARTAL SLX Muğla 7.5.2026 15:30 1.000 TL
425 2021 Hyundai H100 KAMYONET 2.5 CRDI Muğla 7.5.2026 15:30 1.000 TL
426 2013 Volkswagen GOLF 1.2 TSI Adana 7.5.2026 15:30 1.000 TL
427 2021 Fiat/Tofaş DOBLO CARGO MAXI 1.6 M.JET 120 Bursa 7.5.2026 15:30 1.000 TL
428 2024 Renault MEGANE 1,3 TCE Ankara 7.5.2026 15:30 1.000 TL
429 2023 Fiat/Tofaş EGEA 1,4 FİRE Adıyaman 7.5.2026 15:30 1.000 TL
430 2013 Opel ASTRA HB CLASSIC 1.6i Erzurum 7.5.2026 15:30 1.000 TL
431 2005 Ford FIESTA 1.4 TDCi COMFORT Sakarya 7.5.2026 15:30 1.000 TL
432 1996 Fiat/Tofaş SAHIN S Şehir Seç 7.5.2026 15:30 1.000 TL
433 2024 Renault TALIANT JOY 1.0 TURBO X-TRONIC 90 İstanbul 7.5.2026 15:30 1.000 TL
434 2017 Opel ASTRA HB 1.4 150 Şehir Seç 7.5.2026 15:30 1.000 TL
435 2016 Seat LEON 1.6 TDI 110 DSG Şehir Seç 7.5.2026 15:30 1.000 TL
436 2023 Motorsiklet CG50 Balıkesir 7.5.2026 15:30 1.000 TL
437 2025 Motorsiklet PULSAR RS200 Manisa 7.5.2026 15:30 1.000 TL
438 2024 Citroen C3 AIRCROSS SHINE 1.2 PURETECH Tekirdağ 7.5.2026 15:30 1.000 TL
439 2015 Volkswagen TIGUAN 2.0 TDI Muğla 7.5.2026 15:30 1.000 TL
440 2018 Honda CIVIC 1.6 Ankara 7.5.2026 15:30 1.000 TL
441 2019 Renault CLIO HB 1.2 TURBO Ankara 7.5.2026 15:30 1.000 TL
442 2020 Jeep COMPASS 1.3 İstanbul 7.5.2026 15:30 1.000 TL
443 2017 Fiat/Tofaş LINEA POP 1.3 MULTIJET Çanakkale 7.5.2026 15:30 1.000 TL
444 2023 Fiat/Tofaş EGEA CROSS 1.4 FIRE Zonguldak 7.5.2026 15:30 1.000 TL
445 2020 Fiat/Tofaş FIORINO COMBI 1.3 M.JET Mersin 7.5.2026 15:30 1.000 TL
446 2023 Hyundai BAYON 1.0T İzmir 7.5.2026 15:30 1.000 TL
447 2022 Dacia DUSTER 1.3 TURBO Kocaeli 7.5.2026 15:30 1.000 TL
448 2021 Honda CITY 4D 1.5 Sivas 7.5.2026 15:30 1.000 TL
449 2016 Volkswagen TIGUAN 2.0 TDI Şehir Seç 7.5.2026 15:30 1.000 TL
450 2015 Seat IBIZA 1.2 TSI Kocaeli 7.5.2026 15:30 1.000 TL
451 2017 Renault SYMBOL JOY 1.5 DCI Konya 7.5.2026 15:30 1.000 TL
452 2001 Ford FOCUS 1.6i Ankara 7.5.2026 15:30 1.000 TL
453 2020 Motorsiklet STMAX LINDY 50 Antalya 7.5.2026 15:30 1.000 TL
454 2025 Motorsiklet WİNG 50İ Ankara 7.5.2026 15:30 1.000 TL
455 2018 Peugeot 3008 1.6 BLUEHDI Erzurum 7.5.2026 15:30 1.000 TL
456 2023 Motorsiklet CG 50 Mersin 7.5.2026 15:30 1.000 TL
457 2022 Honda DIO Mersin 7.5.2026 15:30 1.000 TL
458 2016 Fiat/Tofaş EGEA 1.3 MULTIJET Kocaeli 7.5.2026 15:30 1.000 TL
459 2018 Volkswagen PASSAT 1.6 TDI İstanbul 7.5.2026 15:30 1.000 TL
460 2022 Hyundai BAYON 1.4 MPI İzmir 7.5.2026 15:30 1.000 TL
461 2023 Ford TOURNEO COURIER 1.5 İstanbul 7.5.2026 15:30 1.000 TL
462 2013 Citroen C4 1.6 e-HDI İstanbul 7.5.2026 15:30 1.000 TL
463 2023 Volkswagen TAIGO 1.0 TSI Balıkesir 7.5.2026 15:30 1.000 TL
464 2020 Hyundai TUCSON FL 1.6 T-GDI Kütahya 7.5.2026 15:30 1.000 TL
465 2015 Bmw 116d 1.5 Bursa 7.5.2026 15:30 1.000 TL
466 2023 Motorsiklet CITA50 R GOLD Şehir Seç 7.5.2026 15:30 1.000 TL
467 2015 Peugeot 208 1.2 PURETECH İzmir 7.5.2026 15:30 1.000 TL
468 2011 Honda CBR 250R Sakarya 7.5.2026 15:30 1.000 TL
469 2019 Volkswagen PASSAT 1.6 TDI Konya 7.5.2026 15:30 1.000 TL
470 2011 Volkswagen PASSAT 1.6 TDI BMT COMFORTLINE Mersin 7.5.2026 15:30 1.000 TL
471 2025 Motorsiklet VSX ELEKTRIKLI Malatya 7.5.2026 15:30 1.000 TL
472 2010 Fiat/Tofaş DOBLO COMBI 1.3 MULTIJET SAFELINE Nevşehir 7.5.2026 15:30 1.000 TL
473 2023 Motorsiklet MARTINI 50 Kahramanmaraş 7.5.2026 15:30 1.000 TL
474 2006 Renault MEGANE 1.4 Adıyaman 7.5.2026 15:30 1.000 TL
475 1991 Fiat/Tofaş SAHİN 1.6 İzmir 7.5.2026 15:30 1.000 TL
476 2020 Fiat/Tofaş EGEA SEDAN 1.3 M.JET 95 Şehir Seç 7.5.2026 15:30 1.000 TL
477 2023 Fiat/Tofaş DOBLO CARGO MAXI 1.6 M.JET Konya 7.5.2026 15:30 1.000 TL
478 2009 Fiat/Tofaş ALBEA SOLE 1.3 MULTIJET İstanbul 7.5.2026 15:30 1.000 TL
479 2019 Renault CLIO HB 1.5 DCI Bursa 7.5.2026 15:30 1.000 TL
480 2017 Hyundai ACCENT BLUE 1.4 D-CVVT Sivas 7.5.2026 15:30 1.000 TL
481 2023 Motorsiklet RESA 125 SCOOTER Bursa 7.5.2026 15:30 1.000 TL
482 2008 Ford FUSION 1.6 TDCi Manisa 7.5.2026 15:30 1.000 TL
483 1998 Nissan MICRA 1.3 GX (ESKI MODEL) Ankara 7.5.2026 15:30 1.000 TL
484 2001 Renault MEGANE 1.4 HB Antalya 7.5.2026 15:30 1.000 TL
485 2015 Dacia DOKKER 1.5 DCI Bitlis 7.5.2026 15:30 1.000 TL
486 2010 Dorse/Römork DAMPERLİ YARI RÖMORK Ankara 7.5.2026 15:30 1.000 TL
487 2007 Peugeot 206 FEVER 1.4 Şehir Seç 7.5.2026 15:30 1.000 TL
488 2024 Motorsiklet K-LIGHT 250V Aksaray 7.5.2026 15:30 1.000 TL
489 2023 Motorsiklet JUPITER 125 Şehir Seç 7.5.2026 15:30 1.000 TL
490 2020 Motorsiklet 125 DRIFT L Şehir Seç 7.5.2026 15:30 1.000 TL
491 2014 Toyota COROLLA 1.4D-4D SEDAN Edirne 7.5.2026 15:30 1.000 TL
492 2011 Citroen C4 1.6 HDI CONFORT İzmir 7.5.2026 15:30 1.000 TL
493 1994 Fiat/Tofaş SAHİN 1.6 Kahramanmaraş 7.5.2026 15:30 1.000 TL
494 2003 Honda CR-V 2.0 Şehir Seç 7.5.2026 15:30 1.000 TL
495 2024 Motorsiklet RAIDER 125 İstanbul 7.5.2026 15:30 1.000 TL
496 2024 Motorsiklet SPECIAL ALFA 125 Ordu 7.5.2026 15:30 1.000 TL
497 2022 Motorsiklet ALTAI CARRIER 110 PRO İstanbul 7.5.2026 15:30 1.000 TL
498 2016 Hyundai ELANTRA 1.6 D-CVVT Van 7.5.2026 15:30 1.000 TL
499 2023 Motorsiklet BRILLIANT 125 PRO Zonguldak 7.5.2026 15:30 1.000 TL
500 2001 Kia PREGIO 3VAN İstanbul 7.5.2026 15:30 1.000 TL
501 2006 Bmw 320D SEDAN İstanbul 7.5.2026 15:30 1.000 TL
502 2023 Motorsiklet DOMİNAR D 250 İstanbul 7.5.2026 15:30 1.000 TL
503 2021 Renault MEGANE SEDAN 1.5 BLUEDCI Batman 7.5.2026 15:30 1.000 TL
504 2022 Ford ECOSPORT 1.0i ECOBOOST Yalova 7.5.2026 15:30 1.000 TL
505 2020 Honda CIVIC 1.6i VTEC Kocaeli 7.5.2026 15:30 1.000 TL
506 2015 Ford FIESTA 1.5 TDCI Batman 7.5.2026 15:30 1.000 TL
507 2016 Motorsiklet MT250 Kocaeli 7.5.2026 15:30 1.000 TL
508 2004 Nissan ALMERA 1.5 SEDAN Samsun 7.5.2026 15:30 1.000 TL
509 2012 Renault FLUENCE 1.6 (110) Malatya 7.5.2026 15:30 1.000 TL
510 2011 Fiat/Tofaş FIORINO PANORAMA 1.3 M.JET 75 Samsun 7.5.2026 15:30 1.000 TL
511 2013 Mercedes SPRINTER 416 CDI OTOBUS 19+1 Gaziantep 7.5.2026 15:30 1.000 TL
512 2023 Ford TOURNEO COURIER KOMBI 1.5 TDCI 100 Adana 7.5.2026 15:30 1.000 TL
513 1998 Volkswagen PASSAT 1.8 BASIC Erzurum 7.5.2026 15:30 1.000 TL
514 2024 Motorsiklet DASH 125 İzmir 7.5.2026 15:30 1.000 TL
515 2012 Audi A4 2.0 TDI Ankara 7.5.2026 15:30 1.000 TL
516 1992 Opel VECTRA 1.8 Ankara 7.5.2026 15:30 1.000 TL
517 2015 Renault FLUENCE SEDAN 1.5 DCI Şanlıurfa 7.5.2026 15:30 1.000 TL
518 1993 Fiat/Tofaş TEMPRA SX Ankara 7.5.2026 15:30 1.000 TL
519 2001 Volkswagen BORA 1.6 Manisa 7.5.2026 15:30 1.000 TL
520 2021 Opel CORSA 1.2 Afyonkarahisar 7.5.2026 15:30 1.000 TL
521 2018 Honda ACTIVA S (NSC125) Antalya 7.5.2026 15:30 1.000 TL
522 2022 Mercedes CLA 200 4MATIC 1.33 163 Hatay 7.5.2026 15:30 1.000 TL
523 2008 Peugeot 308 COMFORT 1.6 VTI (120) Ankara 7.5.2026 15:30 1.000 TL
524 2022 Opel COMBO 1.5 DIZEL 130 Iğdır 7.5.2026 15:30 1.000 TL
525 2016 Motorsiklet LIFAN E-ARCEE ELEKTRİKLİ Düzce 7.5.2026 15:30 1.000 TL
526 2023 Motorsiklet JUPİTER 125 İzmir 7.5.2026 15:30 1.000 TL
527 2020 Honda ACTİVA S 125 Ankara 7.5.2026 15:30 1.000 TL
528 2018 Fiat/Tofaş PRATICO 1.6 M.JET 120 Balıkesir 7.5.2026 15:30 1.000 TL
529 1992 Fiat/Tofaş KARTAL 1.6 Zonguldak 7.5.2026 15:30 1.000 TL
530 2021 Opel CORSA 1.2 100 İstanbul 7.5.2026 15:30 1.000 TL
531 1992 Fiat/Tofaş TEMPRA 1.6 SX-A Çorum 7.5.2026 15:30 1.000 TL
532 2022 Motorsiklet 100 SFC SNAPPY X Kütahya 7.5.2026 15:30 1.000 TL
533 2026 Motorsiklet NEWCITY 50 İzmir 7.5.2026 15:30 1.000 TL
534 2024 Motorsiklet JUPİTER 125 Gaziantep 7.5.2026 15:30 1.000 TL
535 2004 Peugeot 206 1.4 X-LİNA Trabzon 7.5.2026 15:30 1.000 TL
536 2024 Ford FOCUS 1.5 ECOBLUE Şanlıurfa 7.5.2026 15:30 1.000 TL
537 2024 Skoda SUPERB 1.5 TSI MHEV Balıkesir 7.5.2026 15:30 1.000 TL
538 2024 Peugeot 3008 1.2 HYBRID Ankara 7.5.2026 15:30 1.000 TL
539 2017 Renault MEGANE SEDAN 1.5 DCI Şehir Seç 7.5.2026 15:30 1.000 TL
540 1994 Ford ESCORT 1.6 Şehir Seç 7.5.2026 15:30 1.000 TL
541 2007 Honda CITY 1.4 ELITE Aydın 7.5.2026 15:30 1.000 TL
542 2024 Motorsiklet CAPUCCINO 125 İstanbul 7.5.2026 15:30 1.000 TL
543 2024 Motorsiklet CITA 50 R GOLD Şehir Seç 7.5.2026 15:30 1.000 TL
544 1998 Nissan PICK UP 2.7 CIFT KABIN Konya 7.5.2026 15:30 1.000 TL
545 2023 Honda DIO 110. Ankara 7.5.2026 15:30 1.000 TL
546 2024 Motorsiklet CRV 125 İstanbul 7.5.2026 15:30 1.000 TL
547 2007 Ford T. CONNECT KOMBI K210S 1.8 TDCi Şehir Seç 7.5.2026 15:30 1.000 TL
548 2000 Volkswagen BORA 1.6 TRENDLINE Kayseri 7.5.2026 15:30 1.000 TL
549 2010 Opel INSIGNIA NB 1.6 EDITION Kocaeli 7.5.2026 15:30 1.000 TL
550 2026 Hyundai BAYON 1,0 İzmir 7.5.2026 15:30 1.000 TL
551 2004 Peugeot 307 1.4 HDI Gaziantep 7.5.2026 15:30 1.000 TL
552 2023 Motorsiklet WİNG 50 Afyonkarahisar 7.5.2026 15:30 1.000 TL
553 2024 Motorsiklet LCG 125 Düzce 7.5.2026 15:30 1.000 TL
554 2015 Motorsiklet PEOPLE ONE İzmir 7.5.2026 15:30 1.000 TL
555 2013 Ssangyong REXTON 2.0 D Bolu 7.5.2026 15:30 1.000 TL
556 2021 Honda CIVIC SEDAN 1.6i VTEC Denizli 7.5.2026 15:30 1.000 TL
557 2012 Ford TRANSIT CONNECT K210S 1.8 TDCi İzmir 7.5.2026 15:30 1.000 TL
558 2012 Ford RANGER XLT 2.2 TDCI 150 OV Mersin 7.5.2026 15:30 1.000 TL
559 2023 Fiat/Tofaş FIORINO COMBI 1,4 Çanakkale 7.5.2026 15:30 1.000 TL
560 2004 Renault CLIO HB 1.2 İstanbul 7.5.2026 15:30 1.000 TL
561 2017 Dacia LOGAN MCV 1.5 DCI İzmir 7.5.2026 15:30 1.000 TL
562 2023 Motorsiklet FIDDLE 125 İstanbul 7.5.2026 15:30 1.000 TL
563 2013 Skoda SUPERB 1.6 TDI Şehir Seç 7.5.2026 15:30 1.000 TL
564 2009 Volkswagen CADDY KOMBI 1.9 TDI İzmir 7.5.2026 15:30 1.000 TL
565 2017 Kia CEED 1.6 CRDI Şehir Seç 7.5.2026 15:30 1.000 TL
566 2012 Nissan QASHQAI 1.5 DCI Şehir Seç 7.5.2026 15:30 1.000 TL
567 2012 Kia BONGO K2500 KAMYONET İstanbul 7.5.2026 15:30 1.000 TL
568 2010 Citroen C4 1.6 HDI İstanbul 7.5.2026 15:30 1.000 TL
569 2004 Volkswagen PASSAT 1.9 TDI COMFORTLINE Nevşehir 7.5.2026 15:30 1.000 TL
570 2015 Volkswagen JETTA 1.6 TDI (105) İstanbul 7.5.2026 15:30 1.000 TL
571 2023 Honda PCX 125 Antalya 7.5.2026 15:30 1.000 TL
572 1992 Fiat/Tofaş SAHIN 1.6 Konya 7.5.2026 15:30 1.000 TL
573 2024 Motorsiklet RR525 Şehir Seç 7.5.2026 15:30 1.000 TL
574 2024 Motorsiklet 250 NK İstanbul 7.5.2026 15:30 1.000 TL
575 2024 Motorsiklet BRILLIANT 125 Şehir Seç 7.5.2026 15:30 1.000 TL
576 2024 Citroen BERLINGO 1.5 BLUEHDI Mersin 7.5.2026 15:30 1.000 TL
577 2022 Motorsiklet TEKKEN 125 Muğla 7.5.2026 15:30 1.000 TL
578 2014 Honda SCR 110 Muğla 7.5.2026 15:30 1.000 TL
579 2023 Motorsiklet A250 Şanlıurfa 7.5.2026 15:30 1.000 TL
580 2012 Fiat/Tofaş DOBLO CARGO MAXI 1.6 M.JET Trabzon 7.5.2026 15:30 1.000 TL
581 2023 Motorsiklet STRADA 125 Ordu 7.5.2026 15:30 1.000 TL
582 2022 Ford TOURNEO COURIER KOMBI 1.5 TDCI 100 Ankara 7.5.2026 15:30 1.000 TL
583 2016 Renault MEGANE SEDAN 1.5 DCI EDC 110 Elazığ 7.5.2026 15:30 1.000 TL
584 2012 Volkswagen JETTA 1.6 TDI (105) COMFORTLINE İstanbul 7.5.2026 15:30 1.000 TL
585 2022 Ford TOURNEO COURİER 1.5 TDCI 100 İstanbul 7.5.2026 15:30 1.000 TL
586 2015 Toyota COROLLA 1.6 MULTIDRIVE S Şanlıurfa 7.5.2026 15:30 1.000 TL
587 2023 Motorsiklet APX5 150 İstanbul 7.5.2026 15:30 1.000 TL
588 2014 Volkswagen POLO 1.6 TDI (90) Nevşehir 7.5.2026 15:30 1.000 TL
589 2005 Ford Focus 1.6i Sedan Adana 7.5.2026 15:30 1.000 TL
590 2012 Ford FİESTA 1.4 TDCI Antalya 7.5.2026 15:30 1.000 TL
591 2021 Motorsiklet VİSAL 125 Denizli 7.5.2026 15:30 1.000 TL
592 2012 Citroen BERLİNGO 1.6 HDI 90 Trabzon 7.5.2026 15:30 1.000 TL
593 2020 Fiat/Tofaş FİORİNO 1.3 MULTİJET Ankara 7.5.2026 15:30 1.000 TL
594 2016 Nissan NAVARA 2.3 DCI 190 4X4 PLATINUM Ankara 7.5.2026 15:30 1.000 TL
595 2013 Hyundai I20 1.2 D-CVVT Balıkesir 7.5.2026 15:30 1.000 TL
596 2008 Ford FIESTA 1.4 TDCi Antalya 7.5.2026 15:30 1.000 TL
597 2012 Ford T.CONNECT KOMBI K210S 1.8 TDCI Balıkesir 7.5.2026 15:30 1.000 TL
598 2011 Volkswagen POLO 1.6 TDI (90) Balıkesir 7.5.2026 15:30 1.000 TL
599 2020 Volkswagen PASSAT 1.6 TDI BMT 120 DSG İstanbul 7.5.2026 15:30 1.000 TL
600 2001 Ford FOCUS 1.6 AMBIENTE Ardahan 7.5.2026 15:30 1.000 TL
601 2025 Seat ARONA 1.0 ECOTSI 115 DSG Denizli 7.5.2026 15:30 1.000 TL
602 2025 Renault CLIO 1.0 TCE X-TRONIC 90 Ankara 7.5.2026 15:30 1.000 TL
603 2022 Fiat/Tofaş EGEA SEDAN EASY 1.3 M.JET 95 İzmir 7.5.2026 15:30 1.000 TL
604 2015 Scania CEKICI R400 LA 4x2 HNA Adana 7.5.2026 15:30 1.000 TL
605 2020 Honda CIVIC SEDAN 1.6 125 OV İstanbul 7.5.2026 15:30 1.000 TL
606 2015 Renault CLIO HB 1.2 Bursa 7.5.2026 15:30 1.000 TL
607 2023 Motorsiklet PULSAR RS200 Kocaeli 7.5.2026 15:30 1.000 TL
608 2013 Volkswagen POLO 1.6 TDI COMFORTLINE (90) Hatay 7.5.2026 15:30 1.000 TL
609 2012 Volkswagen JETTA 1.6 TDI (105) Şanlıurfa 7.5.2026 15:30 1.000 TL
610 2002 Opel CORSA 1.2 Adıyaman 7.5.2026 15:30 1.000 TL
611 1998 Renault BROADWAY 1.4 Şehir Seç 7.5.2026 15:30 1.000 TL
612 1995 Renault R9 BROADWAY 1.4 Şehir Seç 7.5.2026 15:30 1.000 TL
613 2005 Fiat/Tofaş DOBLO 1.3 MULTIJET İstanbul 7.5.2026 15:30 1.000 TL
614 2005 Fiat/Tofaş DOBLO 1.3 MULTIJET İstanbul 7.5.2026 15:30 1.000 TL
615 1995 Renault R9 BROADWAY 1.4 Şehir Seç 7.5.2026 15:30 1.000 TL
616 1998 Renault BROADWAY 1.4 Şehir Seç 7.5.2026 15:30 1.000 TL
617 2002 Opel CORSA 1.2 Adıyaman 7.5.2026 15:30 1.000 TL
618 2017 Hyundai ACCENT BLUE 1.6 CRDI Şanlıurfa 7.5.2026 15:30 1.000 TL
619 2024 Motorsiklet RAIDER 125 Kayseri 7.5.2026 15:30 1.000 TL
620 2011 Volkswagen CADDY KOMBI 1.6 TDI Manisa 7.5.2026 15:30 1.000 TL
621 2008 Ford T. CONNECT KOMBI GLX K210 S 1.8 TDCi 110 Konya 7.5.2026 15:30 1.000 TL
622 2013 Volkswagen GOLF 1.2 TSI COMFORTLINE Hakkari 7.5.2026 15:30 1.000 TL
623 2023 Fiat/Tofaş EGEA CROSS 1.6 MULTİJET LOUNGE İzmir 7.5.2026 15:30 1.000 TL
624 2023 Volvo XC40 P8 RECHARGE ULTİMATE İstanbul 7.5.2026 15:30 1.000 TL
625 2026 Volvo XC60 B5 AWD PLUS DARK 2.0 250 İstanbul 7.5.2026 15:30 1.000 TL
626 2025 Peugeot 3008 ALLURE 1.2 HYBRID İstanbul 7.5.2026 15:30 1.000 TL
627 2025 Opel CORSA 1.2 T EDİTİON İstanbul 7.5.2026 15:30 1.000 TL
628 2026 Hyundai I20 1.0 T-GDI STYLE Malatya 7.5.2026 15:30 1.000 TL
629 2025 Hyundai BAYON 1.0 T-GDI JUMP İstanbul 7.5.2026 15:30 1.000 TL
630 2022 Hyundai I20 1.4 MPI JUMP Bursa 7.5.2026 15:30 1.000 TL
631 2012 Ford TRANSIT 350L VAN Sivas 7.5.2026 15:30 1.000 TL
632 2005 Chevrolet KALOS 1.4 Ankara 7.5.2026 15:30 1.000 TL
633 2004 Peugeot 307 1.4 Diyarbakır 7.5.2026 15:30 1.000 TL
634 2005 Ford T. CONNECT 1.8 Van 7.5.2026 15:30 1.000 TL
635 2004 Ford TRANSIT Gaziantep 7.5.2026 15:30 1.000 TL
636 1998 Toyota COROLLA 1.6 Çorum 7.5.2026 15:30 1.000 TL
637 2010 Ford FOCUS 1.6 TDCi Ankara 7.5.2026 15:30 1.000 TL
638 2013 Renault FLUENCE 1.5 İstanbul 7.5.2026 15:30 1.000 TL
639 2018 Opel ASTRA 1.6 İstanbul 7.5.2026 15:30 1.000 TL
640 2016 Toyota HILUX 2.4 Yalova 7.5.2026 15:30 1.000 TL
641 2025 Opel CORSA 1.2 Bursa 7.5.2026 15:30 1.000 TL
642 2021 Ford TRANSIT KAMYONET Adana 7.5.2026 15:30 1.000 TL
643 2017 Toyota C-HR 1.8 İstanbul 7.5.2026 15:30 1.000 TL
644 2024 Volkswagen POLO 1.0 TSI İstanbul 7.5.2026 15:30 1.000 TL
645 2025 Citroen C4 X 1.2 PURETECH Hatay 7.5.2026 15:30 1.000 TL
646 2025 Volkswagen T-ROC 1.5 TSI Mardin 7.5.2026 15:30 1.000 TL
647 2022 Ford TRANSITCUSTOMVAN340L 130 E6.2 TREND ORTATAVAN İstanbul 7.5.2026 15:45 574.000 TL
648 2022 Opel CORSA 1.2 MT5 75 ELEGANCE Ankara 7.5.2026 15:45 505.000 TL
649 2012 Volkswagen POLO 1.2 TDI (75) TRENDLINE Ankara 7.5.2026 15:45 479.000 TL
650 2013 Nissan QASHQAI 1.5 DCI TEKNA SPORT PACK Ankara 7.5.2026 15:45 488.500 TL
651 2001 Mercedes 2521 Siirt 7.5.2026 15:45 558.000 TL
652 2018 Citroen C-ELYSEE LIVE 1.6 BLUEHDI 100 İstanbul 7.5.2026 15:45 543.500 TL
653 2011 Toyota AURIS 1.6 COMFORT EXTRA İstanbul 7.5.2026 15:45 518.000 TL
654 2014 Ford FIESTA TREND 5K 1.5 TDCI 75 Ankara 7.5.2026 15:45 496.500 TL
655 2013 Volkswagen JETTA 1.6 TDI (105) COMFORTLINE TIPT DSG İstanbul 7.5.2026 15:45 545.000 TL
656 2020 Fiat/Tofaş EGEA SEDAN EASY 1.3 M.JET 95 E6D Diyarbakır 7.5.2026 15:45 523.500 TL
657 2019 Ford TRANSIT OTOBUS 17+1 Batman 7.5.2026 15:45 575.500 TL
658 2012 Volkswagen JETTA 1.6 TDI (105) HIGHLINE Antalya 7.5.2026 15:45 477.500 TL
659 2020 Renault MEGANE SEDAN TOUCH 1.5 BLUEDCI 115 Ankara 7.5.2026 15:45 569.500 TL
660 2015 Mercedes AXOR 1840 LS Balıkesir 7.5.2026 15:45 573.500 TL
661 2012 Opel INSIGNIA HB COSMO 2.8 (260) 4x4 OV İstanbul 7.5.2026 15:45 485.000 TL
662 2025 Ford TOURNEO COURIER 1.5 D 100 TITANIUM İstanbul 7.5.2026 16:00 818.000 TL
663 2024 Renault CLIO EVOLUTION 1.0 TCE X-TRONIC 90 Ankara 7.5.2026 16:00 745.000 TL
664 2021 Opel CORSA 1.2 100 AT8 ELEGANCE Ankara 7.5.2026 16:00 688.500 TL
665 2025 Hyundai i20 FL 1.0 T-GDI 100 JUMP DCT Ankara 7.5.2026 16:00 649.500 TL
666 2015 Renault CAPTUR ICON 1.5 DCI 90 EDC İstanbul 7.5.2026 16:00 648.000 TL
667 2015 Kia SPORTAGE 1.6 GDI 135 CONCEPT PLUS OV Tokat 7.5.2026 16:00 587.500 TL
668 2023 Peugeot RIFTER ALLURE 1.5 BLUEHDI 100 6MT E6.3 İstanbul 7.5.2026 16:00 656.000 TL
669 2013 Bmw 520d SEDAN COMFORT Şanlıurfa 7.5.2026 16:00 934.000 TL
670 2010 Ford CARGO 2532 Antalya 7.5.2026 16:00 705.000 TL
671 2014 Volkswagen JETTA 1.6 TDI (105) COMFORTLINE Kars 7.5.2026 16:00 735.500 TL
672 2024 Renault MEGANE SEDAN TOUCH 1.3 TCE EDC 140 Ankara 7.5.2026 16:00 915.000 TL
673 2024 Ford TRANSİT 350M ÇİFT KABİN Trabzon 7.5.2026 16:00 721.000 TL
674 2012 Isuzu NPR 3D KAMYON Adana 7.5.2026 16:00 593.000 TL
675 2025 Fiat/Tofaş DUCATO VAN MAXI 15M3 2.2 180 AT S2 İstanbul 7.5.2026 16:00 705.000 TL
676 2007 Dodge NITRO R/T 4.0 Ankara 7.5.2026 16:00 785.000 TL
677 2013 Renault CLIO HB JOY 1.5 DCI 75 İstanbul 7.5.2026 16:30 365.250 TL
678 2014 Volvo ÇEKİCİ FH Mardin 7.5.2026 16:30 1.000.000 TL
679 2025 Skoda OCTAVIA ELITE 1.5 TSI MHEV 150 DSG FL İstanbul 7.5.2026 16:30 1.150.000 TL
680 2023 Volkswagen T-ROC 1.5 TSI Balıkesir 7.5.2026 16:30 1.390.000 TL
681 2008 Ford KAMYON CARGO 3235 S (8x2) Mersin 7.5.2026 16:30 330.000 TL
682 2016 Volvo XC60 2.0 D4 (190) ADVANCE GEARTRONIC Batman 7.5.2026 16:30 965.250 TL
683 2025 Togg T10X V2 RWD UZUN MENZIL 160KW Konya 7.5.2026 16:30 915.250 TL
684 2022 Toyota HILUX 2.4 D-4D 150 HI-CRUISER A/T İstanbul 7.5.2026 16:30 905.250 TL
685 2012 Honda CR-V 2.0 EXECUTIVE OV Samsun 7.5.2026 16:30 785.250 TL
686 2025 Peugeot 3008 ALLURE 1.2 HYBRID 136 EDCS6(YENI) İstanbul 7.5.2026 16:30 1.325.000 TL
687 2025 Peugeot BOXER MINIBUS PERSONEL 16+1 2.2 140 İstanbul 7.5.2026 16:30 870.000 TL
688 2014 Renault CLIO SPORTTOURER JOY 1.5 DCI 75 İstanbul 7.5.2026 16:30 400.000 TL
689 2011 Audi A3 SPORTBACK AMBITION 1.4 TFSI S TRONIC (122) İstanbul 7.5.2026 16:30 660.000 TL
690 2022 Fiat/Tofaş 500X SOFT TOP 1.3 FIREFLY 150 DCT İstanbul 7.5.2026 16:30 745.000 TL
691 2023 Renault MEGANE E-TECH ICONIC EV60 220 İstanbul 7.5.2026 16:30 875.000 TL
692 2017 Fiat/Tofaş LINEA POP 1.3 MULTIJET 95 İstanbul 7.5.2026 16:30 350.000 TL
693 2014 Kia SPORTAGE 1.6 İstanbul 7.5.2026 16:30 700.000 TL
694 2024 Honda CITY 4D 1.5 EXECUTIVE AT İstanbul 7.5.2026 16:30 525.000 TL
695 2025 Nissan JUKE 1.0 DIG-T 115 DCT PLATINUM FL İstanbul 7.5.2026 16:30 940.000 TL
696 2025 Byd SEAL U DM-i İstanbul 7.5.2026 16:30 1.395.000 TL
697 2025 Ford PUMA TITANIUM HIBRIT 1.0 ECOBOOST 125 7AT İstanbul 7.5.2026 16:30 945.000 TL
698 2017 Audi A5 SPORTBACK 1.4 TFSİ İstanbul 7.5.2026 16:30 1.425.000 TL
699 2020 Ford TRANSITCUSTOMKOMBIVAN 320S 130 E6.2 TREND İstanbul 7.5.2026 16:30 475.000 TL
700 2018 Fiat/Tofaş FULLBACK ROCK 4x2 M/T 2.4 150 E6 İstanbul 7.5.2026 16:30 620.000 TL
701 2021 Bmw Z4 SDRIVE30i 2.0 258 EDITION M SPORT İstanbul 7.5.2026 16:30 3.330.000 TL
702 2011 Renault CLIO HB 1.5 DCI Ordu 7.5.2026 16:30 346.500 TL
703 2009 Fiat/Tofaş DOBLO COMBI 1.3 MULTIJET Aydın 7.5.2026 16:30 79.000 TL
704 2024 Motorsiklet RAIDER 125 Denizli 7.5.2026 16:30 1.000 TL
705 2015 Nissan X-TRAIL 1.6 DCI PLATINUM PREMIUM Bursa 7.5.2026 16:30 651.000 TL
706 2022 Motorsiklet DOMİNAR D 250 İzmir 7.5.2026 16:30 1.000 TL
707 1996 Renault R12 TSW Adana 7.5.2026 16:30 11.000 TL
708 2012 Man TGX 18.440 4x2 BLS İzmir 7.5.2026 16:30 13.000 TL
709 2024 Motorsiklet 250 SR Gaziantep 7.5.2026 16:30 10.000 TL
710 1998 Mercedes E 200 Adana 7.5.2026 16:30 110.000 TL
711 2023 Volvo S60 B5 2.0 Adana 7.5.2026 16:30 218.000 TL
712 2017 Toyota COROLLA 1.4 D-4D Kocaeli 7.5.2026 16:30 606.000 TL
713 2023 Ford CEKICI F-MAX Hatay 7.5.2026 16:30 980.000 TL
714 2021 Honda CITY 1.5i VTEC Kayseri 7.5.2026 16:30 112.500 TL
715 2023 Motorsiklet AZURE 50 PRO Balıkesir 7.5.2026 16:30 1.000 TL
716 2022 Motorsiklet 250 NK Adana 7.5.2026 16:30 1.000 TL
717 2000 Renault SCENIC 1.6 Mersin 7.5.2026 16:30 1.000 TL
718 2023 Motorsiklet X-TREME MAXX 200i Bursa 7.5.2026 16:30 1.000 TL
719 2012 Ford FOCUS 1,6 TDCİ Manisa 7.5.2026 16:30 1.000 TL
720 2006 Renault MASTER Antalya 7.5.2026 16:30 1.000 TL
721 2017 Dorse/Römork YARI RÖMORK İzmir 7.5.2026 16:30 1.000 TL
722 1999 Hyundai ACCENT 1.5 GLS Manisa 7.5.2026 16:30 1.000 TL
723 2014 Fiat/Tofaş LINEA 1.3 M.JET Kayseri 7.5.2026 16:30 1.000 TL
724 2021 Volvo XC60 2.0 B4 Bursa 7.5.2026 16:30 556.000 TL
725 2025 Motorsiklet BLUEBIRD PRO 50 Antalya 7.5.2026 16:30 1.000 TL
726 1994 Fiat/Tofaş SAHİN 1.6 Denizli 7.5.2026 16:30 1.000 TL
727 2004 Renault MEGANE 1,6 DYNAMIQUE Tekirdağ 7.5.2026 16:30 1.000 TL
728 1994 Fiat/Tofaş TEMPRA S Kocaeli 7.5.2026 16:30 1.000 TL
729 2022 Motorsiklet RUTEC LX05 Bursa 7.5.2026 16:30 1.000 TL
730 2012 Opel ASTRA 1,4 İzmir 7.5.2026 16:30 6.000 TL
731 2015 Mercedes AXOR 1840 LS Hatay 7.5.2026 16:30 1.000 TL
732 2023 Motorsiklet VN50 PRO Giresun 7.5.2026 16:30 1.000 TL
733 2017 Citroen C-ELLYSE FEEL 1.6 HDI 92 Gaziantep 7.5.2026 16:30 1.000 TL
734 1988 Fiat/Tofaş SAHIN 5 VITES Konya 7.5.2026 16:30 1.000 TL
735 2014 Motorsiklet PCX 125 Ankara 7.5.2026 16:30 1.000 TL
736 2024 Motorsiklet HONDA PCX 125 DX Ankara 7.5.2026 16:30 1.000 TL
737 2010 Geely MK FAMILIA 1.5 COMFORT Bursa 7.5.2026 16:30 5.000 TL
738 2017 Renault MEGANE SEDAN TOUCH 1.5 DCI EDC 110 Ankara 7.5.2026 16:30 100.000 TL
739 2001 Mercedes C 200 KOMPRESSOR Ankara 7.5.2026 16:30 185.000 TL
740 1993 Fiat/Tofaş DOGAN SLX Ankara 7.5.2026 16:30 1.000 TL
741 2012 Volkswagen CADDY COMBI 1.6 TDI TEAM Kayseri 7.5.2026 16:30 1.000 TL
742 2025 Motorsiklet VOLTA VS4 ELEKTRIKLI Sivas 7.5.2026 16:30 1.000 TL
743 2023 Motorsiklet ARORA MT 125 Giresun 7.5.2026 16:30 1.000 TL
744 2017 Ford TRANSIT COURIER VAN 1.5 TDCI 75 TREND İzmir 7.5.2026 16:30 1.000 TL
745 2016 Dacia LODGY LAUREATE 1.5 DCI 90 5 KISILIK Antalya 7.5.2026 16:30 25.000 TL
746 2025 Fiat/Tofaş EGEA SEDAN EASY 1.6 M.JET 130 DCT GSR Samsun 7.5.2026 16:30 110.000 TL
747 2017 Fiat/Tofaş LINEA 1.4 DYNAMIC Çanakkale 7.5.2026 16:30 1.000 TL
748 2005 Toyota COROLLA 1.6 TERRA SEDAN (Y) Kocaeli 7.5.2026 16:30 1.000 TL
749 2011 Renault SYMBOL AUTHENTIQUE 1.5 DCI 65 Antalya 7.5.2026 16:30 5.000 TL
750 2017 Renault CLIO HB JOY 1.5 DCI 75 Konya 7.5.2026 16:30 1.000 TL
751 1993 Fiat/Tofaş SAHIN 5 VITES İstanbul 7.5.2026 16:30 500 TL
752 2025 Bmw X1 XDRIVE25e 1.5 245 M SPORT İzmir 7.5.2026 16:30 1.250.000 TL
753 1998 Fiat/Tofaş SAHIN S Antalya 7.5.2026 16:30 500 TL
754 2022 Mercedes C200 4MATIC AMG 1.5 204 9G-TRONIC Ankara 7.5.2026 16:30 1.160.000 TL
755 2011 Honda CIVIC SEDAN 1.6 ELEGANCE (Y) Ankara 7.5.2026 16:30 63.000 TL
756 2017 Fiat/Tofaş 124 SPIDER LUSSO 1.4 MULTIAIR 140 Ankara 7.5.2026 16:30 1.500 TL
757 2025 Fiat/Tofaş EGEA CROSS LIMITED 1.6 M.JET 130DCTGSR TRAC+ İstanbul 7.5.2026 16:30 101.500 TL
758 2020 Peugeot 308 STYLE TECH 1.5 BLUEHDI 130 EAT6 İstanbul 7.5.2026 16:30 405.000 TL
759 2024 Citroen BERLINGO SHINE 1.5 BLUEHDI 130 EAT8 FL İstanbul 7.5.2026 16:30 12.500 TL
760 2020 Fiat/Tofaş EGEA SEDAN EASY 1.4 FIRE 95 İstanbul 7.5.2026 16:30 151.500 TL
761 2024 Renault CLIO EVOLUTION 1.0 TCE X-TRONIC 90 İstanbul 7.5.2026 16:30 101.000 TL
762 2022 Fiat/Tofaş EGEA HB STREET 1.3 M.JET 95 E6D İstanbul 7.5.2026 16:30 6.000 TL
763 2023 Toyota COROLLA 1.5 VISION MULTIDRIVE S FL Kocaeli 7.5.2026 16:30 255.000 TL
764 2024 Motorsiklet HERO DASH İstanbul 7.5.2026 16:30 1.000 TL
765 2024 Motorsiklet KYMCO 150 DINK R Balıkesir 7.5.2026 16:30 4.500 TL
766 2021 Volkswagen POLO 1.0 TSI 95 DSG LIFE Antalya 7.5.2026 16:30 7.500 TL
767 2013 Skoda RAPID AMBITION 1.6 TDI CR 105 Trabzon 7.5.2026 16:30 1.000 TL
768 2022 Kia XCEED ELEGANCE 1.5 160 DCT İstanbul 7.5.2026 16:30 1.500 TL
769 2015 Toyota YARIS 1.5 HYBRID SPIRIT İstanbul 7.5.2026 16:30 500 TL
770 2002 Peugeot 206 XR 1.4 5 KAPI OV Ankara 7.5.2026 16:30 1.500 TL
771 2005 Fiat/Tofaş PALIO 1.2 5K Iğdır 7.5.2026 16:30 500 TL
772 2026 Motorsiklet VOLTA VSX ELEKTRIKLI Malatya 7.5.2026 16:30 500 TL
773 2025 Motorsiklet ARORA AR 06 Rize 7.5.2026 16:30 500 TL
774 1998 Fiat/Tofaş UNO S Kütahya 7.5.2026 16:30 500 TL
775 2013 Karsan JEST 14+1 Mersin 7.5.2026 16:30 1.000 TL
776 1999 Opel CORSA 1.4I GLS İstanbul 7.5.2026 16:30 500 TL
777 2023 Citroen E-C4 X SHINE BOLD 100 KW Antalya 7.5.2026 16:30 500 TL
778 2006 Hyundai ACCENT 1.5 CRDI ADMIRE Bitlis 7.5.2026 16:30 500 TL
779 2025 Fiat/Tofaş EGEA CROSS URBAN 1.6 M.JET İstanbul 7.5.2026 16:30 500 TL
780 2008 Fiat/Tofaş PALIO 1.3 MULTIJET DYNAMIC Antalya 7.5.2026 16:30 500 TL
781 2011 Toyota YARIS 1.33 TERRA SPORTY M/M İstanbul 7.5.2026 16:30 500 TL
782 2020 Fiat/Tofaş EGEA SEDAN MIRROR 1.6 M.JET 120 DCT E6D İstanbul 7.5.2026 16:30 3.000 TL
783 2009 Dacia LOGAN MCV AMBIANCE 1.5 DCI İstanbul 7.5.2026 16:30 500 TL
784 2013 Hyundai I20 1.2 D-CVVT JUMP İstanbul 7.5.2026 16:30 500 TL
785 2007 Citroen C5 SXPK 1.6 HDI İstanbul 7.5.2026 16:30 2.000 TL
786 2012 Mazda BT-50 CIFT KABIN İstanbul 7.5.2026 16:30 1.000 TL
787 2020 Motorsiklet YUKI GUSTO 50 İstanbul 7.5.2026 16:30 500 TL
788 2010 Peugeot 206+ COMFORT 1.4 (75) İstanbul 7.5.2026 16:30 500 TL
789 2017 Mercedes ACTROS 1842 Kayseri 7.5.2026 16:30 1.195.000 TL
790 2024 Mercedes ÇEKİCİ ACTROS 1845 Hatay 7.5.2026 16:30 2.095.000 TL
791 2024 Renault CEKICI T 480 Kocaeli 7.5.2026 16:30 2.305.000 TL
792 2013 Mercedes AXOR 2640 Erzurum 7.5.2026 16:30 1.075.500 TL
793 2025 Bmw 220 GRAN COUPE 1.5 170 SPORT LINE İstanbul 7.5.2026 16:30 1.220.000 TL
794 2016 Mercedes C 180 COUPE 1.6 AMG Ankara 7.5.2026 16:30 1.147.000 TL
795 2024 Peugeot 3008 ALLURE 1.2 HYBRID 136 eDCS6(YENI) İstanbul 7.5.2026 16:30 1.345.000 TL
796 2013 Mercedes CEKICI ACTROS 1844 LS Hatay 7.5.2026 16:30 1.210.000 TL
797 2024 Renault AUSTRAL TECHNO ESPRIT ALPINE M.HYBRID 160 AT Ankara 7.5.2026 16:30 1.095.500 TL
798 2024 Peugeot 3008 ALLURE 1.5 BLUEHDI 130 EAT8 Ankara 7.5.2026 16:30 1.325.000 TL
799 2017 Volkswagen ARTEON 1.5 TSI ACT 150 DSG ELEGANCE Ankara 7.5.2026 16:30 1.243.000 TL
800 2023 Volvo XC90 B5 AWD PLUS BRIGHT 2.0 235 GEARTRONIC Ankara 7.5.2026 16:30 2.795.000 TL
801 2025 Renault CEKICI T 480 İstanbul 7.5.2026 16:30 1.895.000 TL
802 2014 Motorsiklet DUCATI 899 PANIGALE ABS İstanbul 7.5.2026 16:30 1.010.000 TL
803 2009 Bmw X6 xDRIVE 50i İstanbul 7.5.2026 16:30 1.200.000 TL
804 2016 Audi TTS COUPE 2.0 TFSI 310 QUATTRO S TRONIC Ankara 7.5.2026 16:30 1.245.000 TL
805 2012 Toyota AURIS 1.4 D-4D Zonguldak 7.5.2026 16:30 151.500 TL
806 1997 Fiat/Tofaş UNO SX Kahramanmaraş 7.5.2026 16:30 6.600 TL
807 2007 Honda JAZZ 1.4 İstanbul 7.5.2026 16:30 30.000 TL
808 1992 Skoda FAVORIT 135L Ankara 7.5.2026 16:30 1.000 TL
809 2012 Renault FLUENCE 1.5 DCI Manisa 7.5.2026 16:30 1.000 TL
810 1983 Renault R12 TX Mersin 7.5.2026 16:30 2.000 TL
811 2023 Motorsiklet ALTAİ TANK S50 Kocaeli 7.5.2026 16:30 1.000 TL
812 2011 Hyundai ACCENT ERA 1.5 CRDi VGT İstanbul 7.5.2026 16:30 1.000 TL
813 2016 Motorsiklet MT 25 Samsun 7.5.2026 16:30 1.000 TL
814 2025 Honda DIO Antalya 7.5.2026 16:30 1.000 TL
815 2017 Fiat/Tofaş EGEA EASY 1.3 M.JET Denizli 7.5.2026 16:30 20.000 TL
816 2010 Dacia LOGAN MCV AMBIANCE 1.5 DCI İzmir 7.5.2026 16:30 1.000 TL
817 2024 Honda PCX 125 İstanbul 7.5.2026 16:30 10.000 TL
818 2020 Volkswagen PASSAT 1.6 TDI BMT İzmir 7.5.2026 16:30 5.000 TL
819 2023 Motorsiklet NTORQ 125 İzmir 7.5.2026 16:30 3.500 TL
820 2002 Peugeot PARTNER 1.9D Trabzon 7.5.2026 16:30 1.000 TL
821 1997 Fiat/Tofaş SAHIN S Kahramanmaraş 7.5.2026 16:30 1.000 TL
822 2025 Motorsiklet PULSAR NS 200 UG Balıkesir 7.5.2026 16:30 2.000 TL
823 2020 Toyota COROLLA 1.6 SEDAN Bursa 8.5.2026 15:15 1.000 TL
824 2026 Kia SPORTAGE 1.6 Adana 8.5.2026 15:15 1.000 TL
825 2011 Volkswagen TRANSPORTER CAMLIVAN 2.0 TDI İstanbul 8.5.2026 15:15 2.500 TL
826 2015 Man CEKICI TGS 18.400 4X2 BLS E5 LX Tekirdağ 8.5.2026 15:15 500 TL
827 2023 Renault TAILANT 1.0 TURBO Adana 8.5.2026 15:15 1.000 TL
828 2016 Opel ASTRA NB 1.6 Uşak 8.5.2026 15:15 1.000 TL
829 2026 Volkswagen T-ROC 1.5 ETSI Kayseri 8.5.2026 15:15 1.000 TL
830 2021 Mercedes VITO TOURER Antalya 8.5.2026 15:15 717.000 TL
831 2012 Mercedes CEKICI AXOR 1840 LS 4X2 Gaziantep 8.5.2026 15:15 10.500 TL
832 2022 Mercedes A200 İstanbul 8.5.2026 15:15 1.309.000 TL
833 2024 Toyota COROLLA 1.5 SEDAN Muğla 8.5.2026 15:15 500 TL
834 2010 Toyota COROLLA SEDAN 1.4 D-4D Kocaeli 8.5.2026 15:15 381.800 TL
835 2016 Audi A3 SEDAN 1.6 TDI İstanbul 8.5.2026 15:15 857.500 TL
836 2018 Toyota COROLLA 1.6 SEDAN İstanbul 8.5.2026 15:15 680.000 TL
837 2022 Bmw X3 XDRIVE 20D İstanbul 8.5.2026 15:15 3.426.000 TL
838 2025 Volkswagen GOLF 1.5 ETSI İstanbul 8.5.2026 15:15 1.377.500 TL
839 2020 Volvo V60 CROSS CONTRY 2.0 D4 Ankara 8.5.2026 15:15 1.389.500 TL
840 2015 Volkswagen CADDY KOMBI 1.6 TDI TRENDLINE İstanbul 8.5.2026 15:15 670.500 TL
841 2012 Mercedes CEKICI AXOR 1840 LS 4X2 Tekirdağ 8.5.2026 15:15 692.700 TL
842 2018 Bmw 530i XDRIVE SEDAN 2.0 Diyarbakır 8.5.2026 15:15 1.751.000 TL
843 2024 Volvo XC60 2.0 B5 Bursa 8.5.2026 15:15 3.100.000 TL
844 2017 Renault CLIO 1.5 DCI İstanbul 8.5.2026 15:15 701.000 TL
845 2014 Mercedes CEKICI AXOR 1840 LS E5 Adana 8.5.2026 15:15 800.500 TL
846 2015 Scania CEKICI R400 LA 4x2 HNA Ankara 8.5.2026 15:15 1.500.000 TL
847 2021 Iveco CEKICI S-WAY Adana 8.5.2026 15:15 1.418.000 TL
848 2017 Mercedes KAMYON ATEGO Eskişehir 8.5.2026 15:15 550.000 TL
849 2025 Toyota C-HR 1.8 HYBRID Adana 8.5.2026 15:15 1.555.500 TL
850 2025 Volkswagen AMAROK 3.0 TDI Antalya 8.5.2026 15:15 2.130.000 TL
851 2025 Nissan JUKE 1.0 DIG-T Trabzon 8.5.2026 15:15 1.000.500 TL
852 2011 Skoda OCTAVIA 1.6 Ankara 8.5.2026 15:15 261.000 TL
853 2013 Renault TRAFIC MULTIX GRAND CONFORT 2.0 DCI İstanbul 8.5.2026 15:15 1.000 TL
854 2010 Peugeot 207 TRENDY 1.4 İstanbul 8.5.2026 15:15 500 TL
855 2015 Audi A3 SEDAN 1.6 TDI Antalya 8.5.2026 15:15 4.000 TL
856 2022 Audi A5 SPORTBACK 40TDI QUATTRO ADVANCED Adana 8.5.2026 15:15 2.380.000 TL
857 2015 Mercedes CEKICI AXOR 1840 LS 4X2 Mardin 8.5.2026 15:15 650.000 TL
858 2016 Renault KADJAR 1.5 DCI Mardin 8.5.2026 15:15 726.500 TL
859 2017 Opel ASTRA NB 1.6 İstanbul 8.5.2026 15:15 577.500 TL
860 2016 Volkswagen JETTA 1.4 TSI BMT Bursa 8.5.2026 15:15 671.500 TL
861 2022 Volkswagen PASSAT 1.5 TSI Mersin 8.5.2026 15:15 1.154.000 TL
862 2005 Dorse/Römork FRİGORİFİK YARI RÖMORK Mersin 8.5.2026 15:15 1.000 TL
863 2020 Porsche CAYENNE 3.0 İstanbul 8.5.2026 15:15 56.500 TL
864 2021 Renault MEGANE SEDAN JOY 1.3 TCE İstanbul 8.5.2026 15:15 1.000 TL
865 2022 Audi A5 SPORTBACK 40 TDI QUATTRO İzmir 8.5.2026 15:15 415.500 TL
866 2022 Renault ZOE Konya 8.5.2026 15:15 1.200 TL
867 2011 Mitsubishi CANTER KAMYON FE 859 G Bursa 8.5.2026 15:15 1.000 TL
868 2006 Scania KAMYON R 380 GB 8x2 NZ Bolu 8.5.2026 15:15 1.500 TL
869 2024 Fiat/Tofaş DOBLO COMBI 1.5 BLUEHDI Antalya 8.5.2026 15:15 500 TL
870 2024 Toyota COROLLA 1.5 SEDAN İstanbul 8.5.2026 15:15 1.000 TL
871 2006 Fiat/Tofaş ALBEA 1.3 MULTIJET ACTIVE İstanbul 8.5.2026 15:30 1.000 TL
872 2006 Opel CORSA 1.3 CDTi 5 KAPI ESSENTIA İzmir 8.5.2026 15:30 1.000 TL
873 2016 Ford TOURNEO COURIER 1.6 TDCI Aksaray 8.5.2026 15:30 1.000 TL
874 2009 Dorse/Römork BRANDALI RÖMORK MERAL KASA Kayseri 8.5.2026 15:30 1.000 TL
875 2010 Chevrolet CRUZE 1.6 LS Niğde 8.5.2026 15:30 1.000 TL
876 2024 Dorse/Römork FESAN YARI RÖMORK Kayseri 8.5.2026 15:30 1.000 TL
877 2014 Volkswagen CADDY KOMBI 1.6 TDI 102 DSG Bursa 8.5.2026 15:30 1.000 TL
878 2024 Kgmobılıty TORRES EVX İzmir 8.5.2026 15:30 1.000 TL
879 2023 Honda CITY 4D 1.5 Ankara 8.5.2026 15:30 1.000 TL
880 2020 Ford PUMA 1.0 ECOBOOST Hatay 8.5.2026 15:30 1.000 TL
881 1993 Fiat/Tofaş TEMPRA Konya 8.5.2026 15:30 1.000 TL
882 1988 Fiat/Tofaş MURAT 1.6 Aydın 8.5.2026 15:30 1.000 TL
883 2022 Fiat/Tofaş EGEA SEDAN EASY 1.3 M.JET Konya 8.5.2026 15:30 1.000 TL
884 2024 Peugeot e 2008 Mersin 8.5.2026 15:30 1.000 TL
885 2023 Opel CORSA 1.2 İstanbul 8.5.2026 15:30 1.000 TL
886 2005 Honda JAZZ 1.4 LS Adana 8.5.2026 15:30 1.000 TL
887 2022 Motorsiklet RESA 125 Giresun 8.5.2026 15:30 1.000 TL
888 2012 Toyota AURIS 1.4 D4D Tokat 8.5.2026 15:30 1.000 TL
889 2014 Fiat/Tofaş DOBLO 1.3 MJET Ankara 8.5.2026 15:30 1.000 TL
890 1988 Fiat/Tofaş DOĞAN 1.6 Sakarya 8.5.2026 15:30 1.000 TL
891 2019 Ford TRANSIT COURIER VAN 1.5 TDCI İzmir 8.5.2026 15:30 1.000 TL
892 2014 Renault SYMBOL 1.5 DCI Karabük 8.5.2026 15:30 1.000 TL
893 2020 Dorse/Römork N/A YARI RÖMORK TENTELİ İzmir 8.5.2026 15:30 1.000 TL
894 2013 Dorse/Römork MEILLER KISA 3 YARI ROMÖRK Antalya 8.5.2026 15:30 1.000 TL
895 1997 Mazda 323 1.8 SEDAN Çorum 8.5.2026 15:30 1.000 TL
896 2006 Fiat/Tofaş DOBLO 1.3 MULTIJET Sivas 8.5.2026 15:30 1.000 TL
897 2024 Motorsiklet TK 03 Denizli 8.5.2026 15:30 1.000 TL
898 2003 Fiat/Tofaş MAREA 1.6 EXCLUSIVE Ankara 8.5.2026 15:30 1.000 TL
899 2014 Volkswagen CRAFTER 16+1 MİNİBÜS Şanlıurfa 8.5.2026 15:30 1.000 TL
900 2017 Dacia DOKKER COMBI 1.5 DCI 90 Ankara 8.5.2026 15:30 1.000 TL
901 2004 Peugeot 307 1.6 XT İstanbul 8.5.2026 15:30 1.000 TL
902 2014 Fiat/Tofaş DOBLO CARGO 1.3 M.JET 90 Kocaeli 8.5.2026 15:30 1.000 TL
903 2002 Peugeot PARTNER 1.9D Trabzon 8.5.2026 15:30 1.000 TL
904 2000 Mitsubishi L200 ÇİFT KABİN KAMYONET Hatay 8.5.2026 15:30 1.000 TL
905 2000 Fiat/Tofaş PALIO 1.4 EL Isparta 8.5.2026 15:30 1.000 TL
906 2005 Peugeot 206 1.4 HDI Ankara 8.5.2026 15:30 1.000 TL
907 2006 Peugeot 307 COMFORT 1.6 HDI Diyarbakır 8.5.2026 15:30 1.000 TL
908 2017 Peugeot 2008 1.6 BLUEHDI İstanbul 8.5.2026 15:30 1.000 TL
909 2025 Motorsiklet PULSAR 200 NS İstanbul 8.5.2026 15:30 1.000 TL
910 2024 Benellı 125S İstanbul 8.5.2026 15:30 1.000 TL
911 2017 Dacia DOKKER COMBI 1.5 Adana 8.5.2026 15:30 1.000 TL
912 2004 Honda ACCORD 2.0 Şehir Seç 8.5.2026 15:30 1.000 TL
913 2021 Motorsiklet CAPPUCINO 50 Muğla 8.5.2026 15:30 1.000 TL
914 2018 Honda CIVIC SEDAN 1.6 (125) OV Ankara 8.5.2026 15:30 1.000 TL
915 2024 Byd SEAL U DM-i Balıkesir 8.5.2026 15:30 1.000 TL
916 2020 Peugeot 308 1.2 PURETECH İstanbul 8.5.2026 15:30 1.000 TL
917 2020 Kia CEED COOL 1.4 Artvin 8.5.2026 15:30 1.000 TL
918 2017 Volkswagen GOLF 1.6 TDI BMT Adana 8.5.2026 15:30 1.000 TL
919 2018 Fiat/Tofaş EGEA EASY 1.6 M.JET Diyarbakır 8.5.2026 15:30 1.000 TL
920 2012 Hyundai ix351.6 GDI 4x2 STYLE PLUS Kocaeli 8.5.2026 15:30 1.000 TL
921 2016 Motorsiklet X-MAX 250 İstanbul 8.5.2026 15:30 1.000 TL
922 2017 Volkswagen PASSAT 1.6 TDI BMT İstanbul 8.5.2026 15:30 1.000 TL
923 1998 Volkswagen TRANSPORTER 2.4 D P.VAN Kırıkkale 8.5.2026 15:30 1.000 TL
924 2014 Fiat/Tofaş DOBLO COMBI 1.6 M.JET 105 Erzurum 8.5.2026 15:30 1.000 TL
925 2005 Alfa Romeo 156 1.6 TS Ankara 8.5.2026 15:30 1.000 TL
926 2019 Volkswagen TIGUAN 1.6 TDI COMFORTLİNE Şanlıurfa 8.5.2026 15:30 1.000 TL
927 2021 Dacia SANDERO 1.0 İstanbul 8.5.2026 15:30 1.000 TL
928 2011 Nissan NOTE 1.5 DCI TEKNA Ankara 8.5.2026 15:30 1.000 TL
929 2011 Dacia LOGAN 1.6 Kayseri 8.5.2026 15:30 1.000 TL
930 2001 Skoda OCTAVIA COMBI 1.6 AMBIENTE Kocaeli 8.5.2026 15:30 1.000 TL
931 2005 Ford FOCUS GHIA HB Şehir Seç 8.5.2026 15:30 1.000 TL
932 2025 Motorsiklet LAVINIA PRO 125 Ankara 8.5.2026 15:30 1.000 TL
933 2001 Renault SCENIC 1.6 16V RXT Ankara 8.5.2026 15:30 1.000 TL
934 2023 Jeep RENEGADE 1.5 Ankara 8.5.2026 15:30 1.000 TL
935 2005 Peugeot 307 LOOK 1.6 HDİ İstanbul 8.5.2026 15:30 1.000 TL
936 2022 Honda PCX 125 İzmir 8.5.2026 15:30 1.000 TL
937 2023 Motorsiklet 125 CAPUCCINO İstanbul 8.5.2026 15:30 1.000 TL
938 2021 Fiat/Tofaş FIORINO CARGO 1.3 M.JET İzmir 8.5.2026 15:30 1.000 TL
939 2024 Motorsiklet PULSAR RS 200 İstanbul 8.5.2026 15:30 1.000 TL
940 2013 Volkswagen POLO 1.6 TDI COMFORTLINE Adana 8.5.2026 15:30 1.000 TL
941 2001 Lada 2110 VEGA SEDAN 1.5İ Sakarya 8.5.2026 15:30 1.000 TL
942 2018 Renault MEGANE SEDAN 1.5 DCI Ankara 8.5.2026 15:30 1.000 TL
943 2024 Citroen BERLINGO VAN 1.5 BLUEHDI İstanbul 8.5.2026 15:30 1.000 TL
944 2004 Citroen JUMPER 2.8 HDI Afyonkarahisar 8.5.2026 15:30 1.000 TL
945 2021 Dacia DOKKER COMBI AMBIANCE 1.5 BLUEDCI Denizli 8.5.2026 15:30 1.000 TL
946 2015 Fiat/Tofaş DOBLO CARGO MAXI 1.3 M.JET Kocaeli 8.5.2026 15:30 1.000 TL
947 2016 Skoda RAPID 1.4 TDI İstanbul 8.5.2026 15:30 1.000 TL
948 2010 Citroen C3 1.4 HDI Mersin 8.5.2026 15:30 1.000 TL
949 2023 Togg T10X Ankara 8.5.2026 15:30 1.000 TL
950 2000 Lada VEGA STATION 1.5 Malatya 8.5.2026 15:30 1.000 TL
951 2012 Tata VISTA 1.3 Afyonkarahisar 8.5.2026 15:30 1.000 TL
952 2018 Ford TOURNEO COUIRER KOMBI 1.5 TDCI Denizli 8.5.2026 15:30 1.000 TL
953 2025 Motorsiklet AR 06 Konya 8.5.2026 15:30 1.000 TL
954 2004 Peugeot 307 1.6 XT Eskişehir 8.5.2026 15:30 1.000 TL
955 2003 Nissan PRIMERA 1.6 TEKNA Uşak 8.5.2026 15:30 1.000 TL
956 2022 Toyota HILUX 2.4 Trabzon 8.5.2026 15:30 1.000 TL
957 2024 Jaecoo JAECOO 7 1.6 Adana 8.5.2026 15:30 1.000 TL
958 2023 Mercedes KAMYON AROCS 3345 Eskişehir 8.5.2026 15:30 1.000 TL
959 2023 Motorsiklet FRECCIA 150 Şehir Seç 8.5.2026 15:30 1.000 TL
960 2013 Audi A3 SPORTBACK 1.6 TDI 105 S TRONIC Ankara 8.5.2026 15:30 1.000 TL
961 2022 Renault CLIO 1.0 Antalya 8.5.2026 15:30 1.000 TL
962 2017 Ford FOCUS 1.5 TDCI Şehir Seç 8.5.2026 15:30 1.000 TL
963 2004 Hyundai ACCENT 1.6 İstanbul 8.5.2026 15:30 1.000 TL
964 2012 Fiat/Tofaş DOBLO 1.3 M.JET Kırıkkale 8.5.2026 15:30 1.000 TL
965 2017 Fiat/Tofaş DOBLO CARGO MAXI 1.3 M.JET Çanakkale 8.5.2026 15:30 1.000 TL
966 1990 Renault L 423 BROADWAY İzmir 8.5.2026 15:30 1.000 TL
967 2012 Ford T.CONNECT KOMBI 1.8 TDCI 90 Muğla 8.5.2026 15:30 1.000 TL
968 1997 Hyundai H100 KAMYONET Adana 8.5.2026 15:30 1.000 TL
969 1992 Hyundai SONATA İstanbul 8.5.2026 15:30 1.000 TL
970 2015 Nissan QASHQAİ 1.6 DCİ BLACK EDİTİON İzmir 8.5.2026 15:30 1.000 TL
971 2025 Citroen C5 AIRCROSS 1.2 Muğla 8.5.2026 15:30 1.000 TL
972 2023 Motorsiklet PULSAR NS 200 İstanbul 8.5.2026 15:30 1.000 TL
973 2005 Nissan ALMERA 1.5 TEKNA SEDAN İstanbul 8.5.2026 15:30 1.000 TL
974 2012 Dorse/Römork 3 DİNG.DÜZ ŞASE YARI RÖMORK Mardin 8.5.2026 15:30 1.000 TL
975 2011 Ford FIESTA 1.4 Antalya 8.5.2026 15:30 1.000 TL
976 1999 Opel CORSA SWING 1.2i Kayseri 8.5.2026 15:30 1.000 TL
977 2023 Mercedes CLA 200 1.33 İstanbul 8.5.2026 15:30 1.000 TL
978 2023 Mini COOPER SE ELEKTRIK INSPIRED İstanbul 8.5.2026 15:30 1.000 TL
979 2022 Ford TRANSIT COURIER VAN 1.5 TDCI TREND Ankara 8.5.2026 15:30 1.000 TL
980 2024 Motorsiklet MCX 125 İstanbul 8.5.2026 15:30 1.000 TL
981 2006 Alfa Romeo 147 1.6 Şehir Seç 8.5.2026 15:30 1.000 TL
982 2021 Honda DIO 110 Konya 8.5.2026 15:30 1.000 TL
983 2024 Dorse/Römork ÖZTREYLER YARI RÖMORK Adana 8.5.2026 15:30 1.000 TL
984 2008 Fiat/Tofaş LINEA 1.4 Trabzon 8.5.2026 15:30 1.000 TL
985 1997 Toyota COROLLA 1.6 XLi (Y) Muğla 8.5.2026 15:30 1.000 TL
986 2024 Fiat/Tofaş EGEA 1.4 FIRE Ankara 8.5.2026 15:30 1.000 TL
987 2022 Fiat/Tofaş DOBLO CARGO MAXI 1.6 M.JET İstanbul 8.5.2026 15:30 1.000 TL
988 2009 Mazda 3 1.6 Şehir Seç 8.5.2026 15:30 1.000 TL
989 2020 Ford TOURNEO COURIER KOMBI 1.5 TDCI100 İzmir 8.5.2026 15:30 1.000 TL
990 2024 Honda DIO 110 Ankara 8.5.2026 15:30 1.000 TL
991 2014 Peugeot BOXER KAMYONET Şehir Seç 8.5.2026 15:30 1.000 TL
992 2016 Renault MASTER PANELVAN 2.3 Tekirdağ 8.5.2026 15:30 1.000 TL
993 2024 Motorsiklet APACHE RTR 200 Şehir Seç 8.5.2026 15:30 1.000 TL
994 2024 Motorsiklet ADX 125 İstanbul 8.5.2026 15:30 1.000 TL
995 1998 Opel CORSA SWING 1.4 Şehir Seç 8.5.2026 15:30 1.000 TL
996 1997 Ford ESCORT CL 1.6 Şehir Seç 8.5.2026 15:30 1.000 TL
997 2017 Hyundai ACCENT BLUE 1.4 D-CVVT Şehir Seç 8.5.2026 15:30 1.000 TL
998 2021 Ford TRANSIT KAMYONET 350M Hatay 8.5.2026 15:30 1.000 TL
999 1999 Peugeot 406 SV 2.0 Muğla 8.5.2026 15:30 1.000 TL
1000 2023 Motorsiklet TRX 12 İstanbul 8.5.2026 15:30 1.000 TL
1001 2020 Ford TRANSIT K.NET CIFT K. 350M 170 Hatay 8.5.2026 15:30 1.000 TL
1002 2024 Honda ACTIVA 125 İstanbul 8.5.2026 15:30 1.000 TL
1003 2014 Renault CLIO HB 1.5 DCI 75 İzmir 8.5.2026 15:30 1.000 TL
1004 2019 Kia SPORTAGE 1.6 DIZEL 136 DCT İstanbul 8.5.2026 15:30 1.000 TL
1005 2017 Citroen C4 CACTUS 1.6 E-HDI 92 Antalya 8.5.2026 15:30 1.000 TL
1006 2025 Dacia SANDERO 1.0 TCE 90 Antalya 8.5.2026 15:30 1.000 TL
1007 2015 Bmw 118i 1.6 Bursa 8.5.2026 15:30 1.000 TL
1008 2023 Cupra FORMENTOR 1.5 TSI Ankara 8.5.2026 15:30 1.000 TL
1009 2020 Fiat/Tofaş EGEA HB 1.6 M.JET Manisa 8.5.2026 15:30 1.000 TL
1010 2021 Peugeot 208 1.2 PURETECH Ankara 8.5.2026 15:30 1.000 TL
1011 2023 Mini COOPER COUNTRYMAN 1.5 İstanbul 8.5.2026 15:30 1.000 TL
1012 2024 Motorsiklet 125 DRIFT L İstanbul 8.5.2026 15:30 1.000 TL
1013 1993 Fiat/Tofaş DOGAN SLX Isparta 8.5.2026 15:30 1.000 TL
1014 2006 Ford FIESTA 1.4 TDCi Denizli 8.5.2026 15:30 1.000 TL
1015 2008 Ford FOCUS 1.6i Antalya 8.5.2026 15:30 1.000 TL
1016 2023 Traktör DEUTZ-FAHR 7250 Konya 8.5.2026 15:30 1.000 TL
1017 2024 Peugeot 2008 1.2 PURETECH İzmir 8.5.2026 15:30 1.000 TL
1018 2014 Fiat/Tofaş LINEA 1.4 Erzurum 8.5.2026 15:30 1.000 TL
1019 2015 Skoda RAPID 1.4 TDI İstanbul 8.5.2026 15:30 1.000 TL
1020 2020 Renault MEGANE SEDAN 1.5 BLUEDCI Ankara 8.5.2026 15:30 1.000 TL
1021 2024 Nissan QASHQAI 1.3 DIG-T Bursa 8.5.2026 15:30 1.000 TL
1022 2015 Ford FOCUS 1.5 TDCI 120 Ankara 8.5.2026 15:30 1.000 TL
1023 2025 Motorsiklet DERYA PRO İzmir 8.5.2026 15:30 1.000 TL
1024 2023 Togg T10X Adana 8.5.2026 15:30 1.000 TL
1025 2024 Renault TRAFIC GRAND CONFORT 2.0 Diyarbakır 8.5.2026 15:30 1.000 TL
1026 2024 Motorsiklet YZF250A Manisa 8.5.2026 15:30 1.000 TL
1027 2014 Dacia LOGAN 1.5 DCI İzmir 8.5.2026 15:30 1.000 TL
1028 2006 Ford FIESTA 1.4 TDCi İzmir 8.5.2026 15:30 1.000 TL
1029 2016 Ford TRANSIT COURIER VAN 1.5 TDCI Ankara 8.5.2026 15:30 1.000 TL
1030 2025 Scania CEKICI S500 Mersin 8.5.2026 15:30 1.000 TL
1031 2013 Renault CLIO HB 1.2 Kocaeli 8.5.2026 15:30 1.000 TL
1032 2012 Peugeot 107 1.0 TRENDY Yalova 8.5.2026 15:30 1.000 TL
1033 2011 Mercedes CEKICI AXOR 1840 LS Mersin 8.5.2026 15:30 1.000 TL
1034 2015 Peugeot 301 1.6 HDI İstanbul 8.5.2026 15:30 1.000 TL
1035 2016 Renault MASTER 16+1 İstanbul 8.5.2026 15:30 1.000 TL
1036 2014 Toyota AURIS 1.6 İstanbul 8.5.2026 15:30 1.000 TL
1037 2021 Citroen C4 1.2 PURETECH Diyarbakır 8.5.2026 15:30 1.000 TL
1038 2011 Renault FLUENCE 1.5 DCI Yozgat 8.5.2026 15:30 1.000 TL
1039 2016 Skoda OCTAVIA 1.6 TDI CR Bursa 8.5.2026 15:30 1.000 TL
1040 2024 Motorsiklet TVS APACHE RTR 200 4V E5 Kocaeli 8.5.2026 15:30 1.000 TL
1041 2011 Ford T. CONNECT KOMBI K210 S 1.8 TDCi Bursa 8.5.2026 15:30 1.000 TL
1042 2018 Toyota COROLLA 1.4 D-4D Samsun 8.5.2026 15:30 1.000 TL
1043 2016 Volkswagen PASSAT 1.6 TDI Gaziantep 8.5.2026 15:30 1.000 TL
1044 1998 Fiat/Tofaş PALIO 1.4 EL Kayseri 8.5.2026 15:30 1.000 TL
1045 2017 Renault MEGANE SEDAN 1.5 DCI Antalya 8.5.2026 15:30 1.000 TL
1046 2017 Renault CAPTUR 1.5 DCI Bursa 8.5.2026 15:30 1.000 TL
1047 2014 Volkswagen JETTA 1.6 TDI Gaziantep 8.5.2026 15:30 1.000 TL
1048 1998 Fiat/Tofaş SAHIN S Niğde 8.5.2026 15:30 1.000 TL
1049 2003 Dorse/Römork SERİN YARI RÖMORK 3DPL İstanbul 8.5.2026 15:30 1.000 TL
1050 2017 Skoda KODIAQ 1.4 TSI 150 ACT Antalya 8.5.2026 15:30 1.000 TL
1051 2017 Renault CLIO HB 1.5 DCI 75 Ankara 8.5.2026 15:30 1.000 TL
1052 2005 Fiat/Tofaş PALIO Mardin 8.5.2026 15:30 1.000 TL
1053 2024 Motorsiklet STMAX LINDY 125 Manisa 8.5.2026 15:30 1.000 TL
1054 1999 Nissan PRIMERA 1.6 SPECIAL EDITION Konya 8.5.2026 15:30 1.000 TL
1055 2025 Honda SH125i Kocaeli 8.5.2026 15:30 1.000 TL
1056 2012 Fiat/Tofaş PUNTO 1.3 MULTIJET (75) Kahramanmaraş 8.5.2026 15:30 1.000 TL
1057 1998 Renault R9 BROADWAY 1.4 Şanlıurfa 8.5.2026 15:30 1.000 TL
1058 2013 Renault CLIO HB 1.2 75 Isparta 8.5.2026 15:30 1.000 TL
1059 2023 Motorsiklet NEW LİGHT PRO 125 Hatay 8.5.2026 15:30 1.000 TL
1060 2015 Ford FOCUS III MCA 1.6 TDCI Diyarbakır 8.5.2026 15:30 1.000 TL
1061 2006 Opel ASTRA HB 1.3 CDTi ENJOY İzmir 8.5.2026 15:30 1.000 TL
1062 1998 Proton PERSONA 1.3 Şehir Seç 8.5.2026 15:30 1.000 TL
1063 2017 Peugeot 301 1.6 HDI Kayseri 8.5.2026 15:30 1.000 TL
1064 2001 Iveco 120-14 Manisa 8.5.2026 15:30 1.000 TL
1065 2004 Peugeot PARTNER 190 C 1.9D Şehir Seç 8.5.2026 15:30 1.000 TL
1066 1997 Toyota COROLLA 1.6 XEi Sivas 8.5.2026 15:30 1.000 TL
1067 2008 Volkswagen CADDY KOMBI 1.9 TDI Antalya 8.5.2026 15:30 1.000 TL
1068 2006 Hyundai ACCENT 1.5 CRDI ADMIRE İstanbul 8.5.2026 15:30 1.000 TL
1069 2017 Toyota YARIS 1.5 İstanbul 8.5.2026 15:30 1.000 TL
1070 2004 Fiat/Tofaş ALBEA 1.2 16V EL Uşak 8.5.2026 15:30 1.000 TL
1071 2012 Kia SPORTAGE 2.0 DSL Trabzon 8.5.2026 15:30 1.000 TL
1072 2006 Alfa Romeo 156 1.6 TS Ankara 8.5.2026 15:30 1.000 TL
1073 2017 Mercedes C 200 d 1.6 D SEDAN Bursa 8.5.2026 15:30 1.000 TL
1074 2023 Ford TOURNEO COURIER KOMBI 1.5 TDCI Kayseri 8.5.2026 15:30 1.000 TL
1075 2024 Motorsiklet JUPİTER 10 Antalya 8.5.2026 15:30 1.000 TL
1076 2024 Honda PCX 125 Muğla 8.5.2026 15:30 1.000 TL
1077 2022 Volkswagen POLO 1.0 TSI Kocaeli 8.5.2026 15:30 1.000 TL
1078 2003 Volkswagen PASSAT 1.9 TDI COMFORTLINE (130) Karaman 8.5.2026 15:30 1.000 TL
1079 2014 Renault CLIO HB 1.5 DCI 75 Antalya 8.5.2026 15:30 1.000 TL
1080 2013 Fiat/Tofaş LINEA 1.3 MULTIJET 95 Karabük 8.5.2026 15:30 1.000 TL
1081 2015 Volkswagen GOLF VII 1.2 TSI BMT 105 Balıkesir 8.5.2026 15:30 1.000 TL
1082 2023 Dorse/Römork KRONE SDP27 Kocaeli 8.5.2026 15:30 1.000 TL
1083 2017 Renault MEGANE SEDAN 1.5 DCI Şehir Seç 8.5.2026 15:30 1.000 TL
1084 2024 Motorsiklet LCG 125 Antalya 8.5.2026 15:30 1.000 TL
1085 2011 Skoda FABIA HB 1.4 İzmir 8.5.2026 15:30 1.000 TL
1086 1993 Fiat/Tofaş SAHiN 1.6 Ankara 8.5.2026 15:30 1.000 TL
1087 2023 Motorsiklet EGE 50 Isparta 8.5.2026 15:30 1.000 TL
1088 2000 Lada 2110 VEGA 1.5i İzmir 8.5.2026 15:30 1.000 TL
1089 2025 Motorsiklet AR 125 Adana 8.5.2026 15:30 1.000 TL
1090 2021 Renault EXPRESS VAN JOY 1.5 BLUEDCI Konya 8.5.2026 15:30 1.000 TL
1091 2024 Motorsiklet R250 Mersin 8.5.2026 15:30 1.000 TL
1092 2022 Ford TRANSIT VAN 350ED Tekirdağ 8.5.2026 15:30 1.000 TL
1093 1987 Renault 12 TSW TOROS Şehir Seç 8.5.2026 15:30 1.000 TL
1094 2020 Opel ASTRA NB 1.4 140 Muğla 8.5.2026 15:30 1.000 TL
1095 2024 Motorsiklet SRV 250 VS Denizli 8.5.2026 15:30 1.000 TL
1096 2023 Citroen BERLINGO VAN 1.5 BLUEHDI Denizli 8.5.2026 15:30 1.000 TL
1097 2024 Motorsiklet SRK 125 R Aksaray 8.5.2026 15:30 1.000 TL
1098 2001 Fiat/Tofaş SAHIN 1.6 i.e. Şehir Seç 8.5.2026 15:30 1.000 TL
1099 2023 Ford TOURNEO COURIER KOMBI 1.5 TDCI 100 Antalya 8.5.2026 15:30 1.000 TL
1100 2000 Renault CLIO SYM. 1,4 RNA Kayseri 8.5.2026 15:30 1.000 TL
1101 1986 Mercedes 200 Şehir Seç 8.5.2026 15:30 1.000 TL
1102 1996 Renault R9 BROADWAY 1.4 Ankara 8.5.2026 15:30 1.000 TL
1103 2007 Renault MEGANE II SEDAN 1.6 Kayseri 8.5.2026 15:30 1.000 TL
1104 2013 Motorsiklet SEYHAN 150 C Ankara 8.5.2026 15:30 1.000 TL
1105 2021 Honda NSS250A FORZA 250 Şehir Seç 8.5.2026 15:30 1.000 TL
1106 1998 Fiat/Tofaş UNO SX İE İzmir 8.5.2026 15:30 1.000 TL
1107 2012 Volvo S60 1.6 DRIVE Şehir Seç 8.5.2026 15:30 1.000 TL
1108 2005 Kia SPORTAGE 2.0 D EX OV Antalya 8.5.2026 15:30 1.000 TL
1109 2013 Ford FIESTA 1.5 TDCI 75 Denizli 8.5.2026 15:30 1.000 TL
1110 2002 Renault CLİO SYMBOL 1.4 Sakarya 8.5.2026 15:30 1.000 TL
1111 1993 Renault R9 BROADWAY 1.4 Isparta 8.5.2026 15:30 1.000 TL
1112 2021 Honda DİO 110 Denizli 8.5.2026 15:30 1.000 TL
1113 2020 Ford TRANSİT COURIER 1.5 TDCİ 75 Antalya 8.5.2026 15:30 1.000 TL
1114 1999 Fiat/Tofaş KARTAL 1.6 Antalya 8.5.2026 15:30 1.000 TL
1115 1991 Mazda 323 1.6 İzmir 8.5.2026 15:30 1.000 TL
1116 2014 Hyundai ACCENT BLUE 1.6 CRDI İstanbul 8.5.2026 15:30 1.000 TL
1117 2013 Volkswagen JETTA 1.4 TSI (122) Kırklareli 8.5.2026 15:30 1.000 TL
1118 2014 Volkswagen CADDY 1.6 TDI (102) Eskişehir 8.5.2026 15:30 1.000 TL
1119 2016 Honda CİVİC SEDAN 1.6 125 Ankara 8.5.2026 15:30 1.000 TL
1120 2015 Renault CLİO 1.5 DCİ 75 Adana 8.5.2026 15:30 1.000 TL
1121 2017 Renault CLIO 1.2 TCE Antalya 8.5.2026 15:30 1.000 TL
1122 2016 Skoda OCTAVIA 1.6 TDI Van 8.5.2026 15:30 1.000 TL
1123 2010 Renault FLUENCE EXPRESSION 1.5 DCI Şehir Seç 8.5.2026 15:30 1.000 TL
1124 2023 Skoda SUPERB 1.5 TSI 150 DSG İzmir 8.5.2026 15:30 1.000 TL
1125 2005 Opel COMBO 1.3 CDTi Konya 8.5.2026 15:30 1.000 TL
1126 1997 Fiat/Tofaş TIPO 2.0 i.e Mardin 8.5.2026 15:30 1.000 TL
1127 2009 Bmc CEKICI PRO 827 (4x2) ZCX Şehir Seç 8.5.2026 15:30 1.000 TL
1128 1998 Renault R9 BROADWAY 1.4 Malatya 8.5.2026 15:30 1.000 TL
1129 1974 Renault R12 TSW TOROS Afyonkarahisar 8.5.2026 15:30 1.000 TL
1130 1993 Fiat/Tofaş DOĞAN SL Ankara 8.5.2026 15:30 1.000 TL
1131 2024 Honda NSS250A FORZA 250 Muğla 8.5.2026 15:30 1.000 TL
1132 1996 Fiat/Tofaş DOĞAN SLX Şehir Seç 8.5.2026 15:30 1.000 TL
1133 2021 Renault CLIO TOUCH 1.0 TCE X-TRONIC 90 Siirt 8.5.2026 15:30 1.000 TL
1134 2005 Fiat/Tofaş PALIO 1.2 16V Ankara 8.5.2026 15:30 1.000 TL
1135 1995 Skoda FELICIA 1.3 Kayseri 8.5.2026 15:30 1.000 TL
1136 2012 Volvo S60 DRIVE POWERSHIFT 1.6 İstanbul 8.5.2026 15:30 1.000 TL
1137 2008 Volkswagen JETTA 1.6 FSI COMFORTLINE (115) Ankara 8.5.2026 15:30 1.000 TL
1138 2016 Renault SYMBOL 1.5 DCI 90 İzmir 8.5.2026 15:30 1.000 TL
1139 2017 Ford FOCUS 1.5 TDCI 120 Batman 8.5.2026 15:30 1.000 TL
1140 1988 Fiat/Tofaş SAHIN 1.6 Kayseri 8.5.2026 15:30 1.000 TL
1141 2013 Fiat/Tofaş DOBLO COMBI 1.3 90 M.JET PREMIO BLACK Kayseri 8.5.2026 15:30 1.000 TL
1142 2015 Renault SYMBOL 1.2 16V 75 Kayseri 8.5.2026 15:30 1.000 TL
1143 2017 Citroen C-ELYSEE 1.6 HDI 92 ATTRACTION Kayseri 8.5.2026 15:30 1.000 TL
1144 2006 Ford FOCUS 1.6 TDCİ TREND Adana 8.5.2026 16:30 500 TL
1145 2010 Audi A4 2.0 TDI İstanbul 8.5.2026 16:30 200.500 TL
1146 2020 Honda ACTIVA S 125 İzmir 8.5.2026 16:30 1.000 TL
1147 2020 Skoda SCALA PREMIUM 1.6 TDI 115 DSG Adana 8.5.2026 16:30 1.000 TL
1148 2023 Motorsiklet DOMINAR D 250 Ankara 8.5.2026 16:30 1.000 TL
1149 1990 Renault BROADWAY 1.4 Balıkesir 8.5.2026 16:30 1.000 TL
1150 2019 Peugeot 3008 1.5 BLUEHDI Antalya 8.5.2026 16:30 1.000 TL
1151 2020 Citroen C3 AIRCROSS.1.5BLUEHDI Kayseri 8.5.2026 16:30 1.000 TL
1152 1992 Renault 12 TSW TOROS Şehir Seç 8.5.2026 16:30 1.000 TL
1153 1990 Fiat/Tofaş KARTAL 1.6 İzmir 8.5.2026 16:30 1.000 TL
1154 2005 Ford T. CONNECT KOMBI 1.8 TDCi Kırklareli 8.5.2026 16:30 1.000 TL
1155 1998 Fiat/Tofaş DOĞAN Hatay 8.5.2026 16:30 1.000 TL
1156 2009 Renault MEGANE II WAGON AUTHENTIQUE 1.5 DCI İstanbul 8.5.2026 16:30 1.000 TL
1157 2025 Opel MOKKA 1.2 130 Konya 8.5.2026 16:30 1.000 TL
1158 2015 Toyota VERSO 1.6 D-4D Erzurum 8.5.2026 16:30 3.500 TL
1159 2024 Fiat/Tofaş EGEA SEDAN EASY 1.6 M.JET Tekirdağ 8.5.2026 16:30 422.500 TL
1160 2013 Renault SYMBOL JOY 1.5 DCI Muğla 8.5.2026 16:30 1.500 TL
1161 2017 Skoda SUPERB 1.6 TDI Çanakkale 8.5.2026 16:30 1.000 TL
1162 1997 Kia BESTA 2.2 Rize 8.5.2026 16:30 1.000 TL
1163 2013 Ford FOCUS 1.6 TDCİ Konya 8.5.2026 16:30 4.000 TL
1164 2009 Volkswagen TIGUAN 2.0 TDI İzmir 8.5.2026 16:30 3.500 TL
1165 2024 Motorsiklet 250 SR Adana 8.5.2026 16:30 1.000 TL
1166 2023 Audi A5 SPORTBACK 45 TFSI QUATTRO S LINE Ankara 8.5.2026 16:30 53.500 TL
1167 2016 Dorse/Römork ERDOĞAN ÖZ YARI RÖMORK Konya 8.5.2026 16:30 1.000 TL
1168 2012 Peugeot PARTNER TEPEE PREMUIM 1.6 HDI (110) Sivas 8.5.2026 16:30 130.000 TL
1169 2024 Motorsiklet 250 NK Balıkesir 8.5.2026 16:30 1.000 TL
1170 2022 Motorsiklet HONDA PCX 125 DLX İstanbul 8.5.2026 16:30 1.000 TL
1171 2025 Volvo EX40 S.MOTOR EXT.RNG ULT. BLACK E.ULT 150KW İstanbul 8.5.2026 16:30 995.000 TL
1172 2025 Motorsiklet REVOLT RSX4 125 Ankara 8.5.2026 16:30 1.000 TL
1173 1993 Opel ASTRA CABRIO 2.0i Kocaeli 8.5.2026 16:30 1.000 TL
1174 2017 Peugeot 301 ALLURE 1.6 HDI 92 Yalova 8.5.2026 16:30 1.000 TL
1175 2020 Mercedes E 200 d FL EDITION 1 EXCLUSIVE İstanbul 8.5.2026 16:30 1.101.000 TL
1176 2016 Motorsiklet YAMAHA YP 250 İstanbul 8.5.2026 16:30 1.000 TL
1177 2006 Peugeot PARTNER 1.9D CONFORT Denizli 8.5.2026 16:30 1.000 TL
1178 2019 Motorsiklet MONDIAL 50 TT Aydın 8.5.2026 16:30 1.000 TL
1179 2024 Motorsiklet VESPA NEW GTS SUPERSPORT 310 İzmir 8.5.2026 16:30 65.000 TL
1180 2017 Renault CLIO HB TOUCH 1.5 DCI 90 S&S Tekirdağ 8.5.2026 16:30 1.000 TL
1181 2012 Ford RANGER XLT 2.2 TDCI 150 ÇİFT KABİN KAMYONET Antalya 8.5.2026 16:30 302.000 TL
1182 2022 Motorsiklet YAMAHA YZF R25 Konya 8.5.2026 16:30 1.000 TL
1183 2012 Volkswagen TRANSPORTER CITYVAN 2.0 TDI 102 5+1 LWB Konya 8.5.2026 16:30 1.000 TL
1184 2018 Dorse/Römork SEMI-?IFT AKSLI İzmir 8.5.2026 16:30 5.500 TL
1185 2025 Mercedes ACTROS 1848 LS 4x2 FL Trabzon 8.5.2026 16:30 102.500 TL
1186 2012 Ford FIESTA TITANIUM 5K 1.4i OV İstanbul 8.5.2026 16:30 30.000 TL
1187 2013 Mercedes AXOR 1840 LS E5 Mersin 8.5.2026 16:30 1.000 TL
1188 2011 Man TGX 18.440 4x2 BLS XLX Ankara 8.5.2026 16:30 1.000 TL
1189 2025 Audi A5 SEDAN 2.0 TFSI QUATTRO 204 STRONIC İstanbul 8.5.2026 16:30 1.500 TL
1190 2024 Ford TRAN.ICA3 350L VAN 11M3 2.0 165 UZUN TREND Ankara 8.5.2026 16:30 2.500 TL
1191 2020 Audi A3 SEDAN 1.5 35 TFSI 150 DYNAMIC STRONIC PI Ankara 8.5.2026 16:30 525.000 TL
1192 1984 Renault 12 TSW İzmir 8.5.2026 16:30 500 TL
1193 2021 Honda CIVIC 4D ELEGANCE ECO 1.6 125 OV Ankara 8.5.2026 16:30 1.500 TL
1194 2024 Motorsiklet MONDIAL NEVADA İstanbul 8.5.2026 16:30 500 TL
1195 2015 Citroen C-ELYSEE 1.6 HDI 92 CONFORT İstanbul 8.5.2026 16:30 1.000 TL
1196 2014 Fiat/Tofaş LINEA ACTIVE PLUS 1.3 MULTIJET 95 E5 İstanbul 8.5.2026 16:30 500 TL
1197 2012 Ford TRANSIT 330 S İstanbul 8.5.2026 16:30 1.000 TL
1198 1993 Lada SAMARA 1.5 HB Konya 8.5.2026 16:30 500 TL
1199 2024 Ford PUMA TITANIUM HIBRIT 1.0 ECOBOOST 125 7AT İstanbul 8.5.2026 16:30 1.000 TL
1200 2020 Motorsiklet RKS SPONTINI 110 (GST110T-14) İstanbul 8.5.2026 16:30 500 TL
1201 2023 Motorsiklet MONDIAL FURY 110 Adana 8.5.2026 16:30 500 TL
1202 2010 Bmw 116I 1.6 5 KAPI İstanbul 8.5.2026 16:30 1.000 TL
1203 2013 Motorsiklet DUCATI 899 PANIGALE İstanbul 8.5.2026 16:30 500 TL
1204 2017 Renault CLIO HB TOUCH 1.5 DCI EDC 90 İstanbul 8.5.2026 16:30 500 TL
1205 2007 Tata INDIGO 1.4 TDI Kocaeli 8.5.2026 16:30 500 TL
1206 1993 Toyota COROLLA 1.3 XL İstanbul 8.5.2026 16:30 500 TL
1207 2010 Hyundai I20 1.2 MPI TEAM İstanbul 8.5.2026 16:30 500 TL
1208 2002 Peugeot 307 1.6 XR Manisa 8.5.2026 16:30 500 TL
1209 2000 Fiat/Tofaş BRAVA 1.6 SX Kayseri 8.5.2026 16:30 1.000 TL
1210 2015 Renault SYMBOL 1.5 DCI JOY İstanbul 8.5.2026 16:30 500 TL
1211 2024 Renault AUSTRAL TECHNO ESPRIT ALPINE E-TECH FH 200 İstanbul 8.5.2026 16:30 1.000 TL
1212 2022 Motorsiklet MONDIAL 125 DRIFT L CBS Edirne 8.5.2026 16:30 500 TL
1213 2011 Hyundai ACCENT ERA 1.4 START Ankara 8.5.2026 16:30 500 TL
1214 2022 Motorsiklet APACHI XRS İstanbul 8.5.2026 16:30 500 TL
1215 2011 Motorsiklet KUBA XY100E Hatay 8.5.2026 16:30 500 TL
1216 2005 Renault TRAFIC 1.9 DCI İstanbul 8.5.2026 16:30 500 TL
1217 2018 Motorsiklet SYM XPRO 125 İstanbul 8.5.2026 16:30 500 TL
1218 2018 Motorsiklet KUBA EGE 50 Antalya 8.5.2026 16:30 500 TL
1219 2005 Renault CLIO 1.2 AUTHENTIQE Kayseri 8.5.2026 16:30 2.000 TL
1220 1997 Renault R9 BROADWAY 1.4 Sivas 8.5.2026 16:30 2.000 TL
1221 2023 Honda ADV 350 İstanbul 8.5.2026 16:30 53.500 TL
1222 2000 Ford TRANSIT MINIBUS 14+1 Sinop 8.5.2026 16:30 2.500 TL
1223 2010 Fiat/Tofaş FIORINO COMBI 1.3 MULTIJET Ankara 8.5.2026 16:30 100.000 TL
1224 2010 Renault CLIO GRAND TOUR 1.5 DCI İstanbul 8.5.2026 16:30 1.000 TL
1225 2020 Mercedes C 200 D İzmir 8.5.2026 16:30 1.500 TL
1226 2007 Fiat/Tofaş ALBEA 1.4 FIRE ACTIVE Muğla 8.5.2026 16:30 500 TL
1227 2025 Motorsiklet SKYTOWN 125 ABS İstanbul 8.5.2026 16:30 1.000 TL
1228 1994 Opel ASTRA 1.4 HB Kayseri 8.5.2026 16:30 1.000 TL
1229 2024 Motorsiklet SAFARI 50 Afyonkarahisar 8.5.2026 16:30 1.000 TL
1230 2023 Honda ACTIVA 125 İzmir 8.5.2026 16:30 1.000 TL
1231 2023 Honda DIO İstanbul 8.5.2026 16:30 1.000 TL
1232 2024 Motorsiklet 250 RR Adana 8.5.2026 16:30 1.000 TL
1233 2023 Motorsiklet SPONTINI 110 (GST110T-14) İzmir 8.5.2026 16:30 1.000 TL
1234 2024 Motorsiklet 125 DRIFT L CBS Eskişehir 8.5.2026 16:30 1.000 TL
1235 2017 Ford KUGA 1.5 TDCI Batman 11.5.2026 15:15 250.000 TL
1236 2024 Bmw İX2 EDRIVE20 Bursa 11.5.2026 15:15 100.200 TL
1237 2013 Ford GRAND C-MAX TITANIUM 1.6 TDCİ Antalya 11.5.2026 15:15 1.000 TL
1238 2020 Hyundai KONA 1.6 CRDI İstanbul 11.5.2026 15:15 100.200 TL
1239 2024 Toyota COROLLA 1.5 SEDAN İstanbul 11.5.2026 15:15 2.000 TL
1240 2019 Fiat/Tofaş EGEA EASY 1.4 FIRE İstanbul 11.5.2026 15:15 1.000 TL
1241 2023 Opel CORSA 1.2 Adana 11.5.2026 15:15 1.000 TL
1242 2023 Mg ZS 1.0 T-GDI İstanbul 11.5.2026 15:15 115.000 TL
1243 2025 Renault CAPTUR 1.3 HYBRID Tekirdağ 11.5.2026 15:15 1.000 TL
1244 2024 Audi A6 SEDAN 40 TDI QUATTRO ADVANCED Kayseri 11.5.2026 15:15 3.297.000 TL
1245 2025 Ford TRANSIT CUSTOM VAN Manisa 11.5.2026 15:15 1.000 TL
1246 2016 Mercedes C 200 D Adana 11.5.2026 15:15 100.000 TL
1247 2024 Honda PCX 125 İstanbul 11.5.2026 15:30 1.000 TL
1248 2023 Honda PCX 125 İzmir 11.5.2026 15:30 1.000 TL
1249 2022 Citroen C-ELYSEE 1.5 BLUEHDI 100 Gaziantep 11.5.2026 15:30 1.000 TL
1250 2012 Opel CORSA 1.2i T.PORT ESSENTIA Sakarya 11.5.2026 15:30 1.000 TL
1251 2025 Motorsiklet 125 DRIFT L Ankara 11.5.2026 15:30 1.000 TL
1252 2020 Motorsiklet SK 125-12A Mersin 11.5.2026 15:30 1.000 TL
1253 2015 Motorsiklet MT 07 Adana 11.5.2026 15:30 1.000 TL
1254 2005 Citroen C3 SX 1.4D Nevşehir 11.5.2026 15:30 1.000 TL
1255 2023 Chery TIGGO 7 PRO 1.6 T-GDI Diyarbakır 11.5.2026 15:30 1.000 TL
1256 2024 Motorsiklet 250 SR Eskişehir 11.5.2026 15:30 1.000 TL
1257 2020 Motorsiklet MT-25 Batman 11.5.2026 15:30 1.000 TL
1258 2017 Fiat/Tofaş DOBLO COMBI 1.6 M.JET EdİRne 11.5.2026 15:30 1.000 TL
1259 2011 Fiat/Tofaş LINEA 1.3 MULTIJET (90) Isparta 11.5.2026 15:30 1.000 TL
1260 1994 Fiat/Tofaş TEMPRA S Samsun 11.5.2026 15:30 1.000 TL
1261 2018 Motorsiklet MT 07 ABS Kayseri 11.5.2026 15:30 1.000 TL
1262 2018 Volkswagen PASSAT 1.6 TDI BMT Diyarbakır 11.5.2026 15:30 1.000 TL
1263 2005 Motorsiklet YBR 125 Antalya 11.5.2026 15:30 1.000 TL
1264 1989 Renault R 1339 Mersin 11.5.2026 15:30 1.000 TL
1265 2002 Fiat/Tofaş DOGAN 1.6 İstanbul 11.5.2026 15:30 1.000 TL
1266 2023 Peugeot RIFTER 1.5 BLUEHDI Tekirdağ 11.5.2026 15:30 1.000 TL
1267 2023 Motorsiklet LAMBRETTA V200 SPECIAL FLEX Antalya 11.5.2026 15:30 1.000 TL
1268 2000 Citroen BERLINGO 1.9 Trabzon 11.5.2026 15:30 1.000 TL
1269 2004 Renault KANGOO 1.5 DCI Ankara 11.5.2026 15:30 1.000 TL
1270 2006 Audi A3 1.6 FSI Şehir Seç 11.5.2026 15:30 1.000 TL
1271 2013 Toyota YARIS 1.33 Elazığ 11.5.2026 15:30 1.000 TL
1272 2012 Ford CEKICI CARGO 1838T 4x2 Şehir Seç 11.5.2026 15:30 1.000 TL
1273 2011 Renault TRAFIC MULTIX GRAND CONFORT 2.0 DCI İstanbul 11.5.2026 15:30 1.000 TL
1274 1994 Fiat/Tofaş SAHIN 1.6 Hatay 11.5.2026 15:30 1.000 TL
1275 2015 Bmw 116d 5 KAPI İstanbul 11.5.2026 15:30 1.000 TL
1276 2025 Honda FORZA 250 İstanbul 11.5.2026 15:30 1.000 TL
1277 2005 Fiat/Tofaş DOBLO 1.2 Elazığ 11.5.2026 15:30 1.000 TL
1278 2019 Seat LEON 1.6 TDI Erzurum 11.5.2026 15:30 1.000 TL
1279 2013 Honda CGX 125 Hatay 11.5.2026 15:30 1.000 TL
1280 2023 Motorsiklet M 502N Sivas 11.5.2026 15:30 1.000 TL
1281 2003 Opel CORSA 1.7 DTI Samsun 11.5.2026 15:30 1.000 TL
1282 1996 Ford ESCORT CLX 1.6 Sivas 11.5.2026 15:30 1.000 TL
1283 2023 Motorsiklet TURISMO 50i Balıkesir 11.5.2026 15:30 1.000 TL
1284 2023 Motorsiklet RAIDER 125 İzmir 11.5.2026 15:30 1.000 TL
1285 2016 Motorsiklet JOYMAX 250i Çanakkale 11.5.2026 15:30 1.000 TL
1286 2016 Nissan JUKE 1.5 DCI SKY PACK İstanbul 11.5.2026 15:30 1.000 TL
1287 2021 Honda DIO 110 İstanbul 11.5.2026 15:30 1.000 TL
1288 2016 Kia CERATO 1.6 DIZEL İstanbul 11.5.2026 15:30 1.000 TL
1289 2004 Citroen XSARA X 1.4 HDI Şehir Seç 11.5.2026 15:30 1.000 TL
1290 2011 Ford T. CONNECT KOMBI K210S 1.8 TDCİ Kayseri 11.5.2026 15:30 1.000 TL
1291 2024 Motorsiklet SUPERLIGHT 125 Şehir Seç 11.5.2026 15:30 1.000 TL
1292 2026 Citroen BERLINGO 1.5 BLUEHDI Şehir Seç 11.5.2026 15:30 1.000 TL
1293 2024 Kia PICANTO 1.0 İstanbul 11.5.2026 15:30 1.000 TL
1294 2014 Motorsiklet PULSAR 200 NS Şehir Seç 11.5.2026 15:30 1.000 TL
1295 2024 Motorsiklet LTR 125 Zonguldak 11.5.2026 15:30 1.000 TL
1296 2001 Renault CLIO 1.4 Şehir Seç 11.5.2026 15:30 1.000 TL
1297 2015 Fiat/Tofaş DOBLO CARGO MAXI 1.3 M.JET 90 Uşak 11.5.2026 15:30 1.000 TL
1298 2017 Skoda OCTAVIA 1.6 TDI Van 11.5.2026 15:30 1.000 TL
1299 2016 Peugeot PARTNER TEPEE 1.6 HDI Şehir Seç 11.5.2026 15:30 1.000 TL
1300 1996 Fiat/Tofaş DOĞAN SLX Mersin 11.5.2026 15:30 1.000 TL
1301 1996 Fiat/Tofaş UNO SX Şehir Seç 11.5.2026 15:30 1.000 TL
1302 2012 Fiat/Tofaş PUNTO 1.3 MULTIJET Ankara 11.5.2026 15:30 1.000 TL
1303 2008 Kia BONGO KAMYONET K2500 Sakarya 11.5.2026 15:30 1.000 TL
1304 2009 Ford FOCUS 1.6 TDCi TREND (109) Aksaray 11.5.2026 15:30 1.000 TL
1305 2019 Mercedes A 180 d SEDAN 1.5 İzmir 11.5.2026 15:30 1.000 TL
1306 1994 Fiat/Tofaş ŞAHİN 1.6 Denizli 11.5.2026 15:30 1.000 TL
1307 1994 Mercedes E 200 Afyonkarahisar 11.5.2026 15:30 1.000 TL
1308 2013 Mercedes SPRINTER 16+1 Gaziantep 11.5.2026 15:30 1.000 TL
1309 2022 Motorsiklet 125 DRIFT L Samsun 11.5.2026 15:30 1.000 TL
1310 2015 Fiat/Tofaş LINEA 1.3 MULTIJET Afyonkarahisar 11.5.2026 15:30 1.000 TL
1311 1990 Fiat/Tofaş SAHIN 1.6 Denizli 11.5.2026 15:30 1.000 TL
1312 2012 Tata VISTA 1.3 CRDI QUADROJET Şehir Seç 11.5.2026 15:30 1.000 TL
1313 2005 Schmitz Cargobull RÖMORK Şehir Seç 11.5.2026 15:30 1.000 TL
1314 2023 Citroen C4 1.2 PURETECH Kocaeli 11.5.2026 15:30 1.000 TL
1315 2014 Ford FIESTA 1.6i Antalya 11.5.2026 15:30 1.000 TL
1316 1998 Fiat/Tofaş PALIO 1.6 Kastamonu 11.5.2026 15:30 1.000 TL
1317 2005 Renault KANGOO CONFORT 1.5 DCI Denizli 11.5.2026 15:30 1.000 TL
1318 2023 Renault CLIO 1.0 TCE Bursa 11.5.2026 15:30 1.000 TL
1319 2012 Ford TRANSIT 300 S VAN Diyarbakır 11.5.2026 15:30 1.000 TL
1320 1999 Renault R9 BROADWAY 1.4 Afyonkarahisar 11.5.2026 15:30 1.000 TL
1321 2025 Motorsiklet LAVINIA PRO 125 Kayseri 11.5.2026 15:30 1.000 TL
1322 2012 Ford TRANSIT 11+1 Batman 11.5.2026 15:30 1.000 TL
1323 2006 Ford FOCUS 1.6 TDCi TREND (109) Aydın 11.5.2026 15:30 1.000 TL
1324 2012 Opel CORSA 1.2i TWINPORT Mersin 11.5.2026 15:30 1.000 TL
1325 2010 Citroen C5 3 SX 1.6 HDI Eskişehir 11.5.2026 15:30 1.000 TL
1326 2024 Honda PCX 125 Manisa 11.5.2026 15:30 1.000 TL
1327 2021 Honda PCX 125 Denizli 11.5.2026 15:30 1.000 TL
1328 2016 Volkswagen POLO 1.2 TSI BMT 90 İstanbul 11.5.2026 15:30 1.000 TL
1329 2022 Motorsiklet CAPUCCINO 125 İstanbul 11.5.2026 15:30 1.000 TL
1330 1992 Renault L 423 Sakarya 11.5.2026 15:30 1.000 TL
1331 2008 Renault SYMBOL 1.4 EXTREME Samsun 11.5.2026 15:30 1.000 TL
1332 2018 Fiat/Tofaş EGEA HB 1.6 E 120 Bolu 11.5.2026 15:30 1.000 TL
1333 2015 Volkswagen CC 1.4 TSI BMT 160 Antalya 11.5.2026 15:30 1.000 TL
1334 2012 Opel ASTRA NB ENJOY 1.3 CDTI (90) Antalya 11.5.2026 15:30 1.000 TL
1335 2021 Opel CORSA 1.2 100 Ankara 11.5.2026 15:30 1.000 TL
1336 2016 Dacia LODGY 1.5 DCI 90 Adana 11.5.2026 15:30 1.000 TL
1337 2010 Peugeot PARTNER TEPEE 1.6 HDI Düzce 11.5.2026 15:30 1.000 TL
1338 2004 Hyundai ACCENT İstanbul 11.5.2026 15:30 1.000 TL
1339 2011 Mercedes AXOR 1840 LS İstanbul 11.5.2026 15:30 1.000 TL
1340 2015 Volkswagen JETTA 1.2 TSI Mersin 11.5.2026 15:30 1.000 TL
1341 2020 Fiat/Tofaş PRATICO KAMYONET 1.6 M.JET Antalya 11.5.2026 15:30 1.000 TL
1342 2024 Honda PCX 125 Samsun 11.5.2026 15:30 1.000 TL
1343 2021 Motorsiklet EXPLORER 250 Kırklareli 11.5.2026 15:30 1.000 TL
1344 2016 Fiat/Tofaş EGEA 1.3 M.JET 95 Antalya 11.5.2026 15:30 1.000 TL
1345 2011 Ford FIESTA 1.4 TDCi Karaman 11.5.2026 15:30 1.000 TL
1346 2016 Kia CERATO 1.6 DIZEL 136 DCT İstanbul 11.5.2026 15:30 1.000 TL
1347 2011 Volkswagen SCIROCCO 1.4 TSI 160 Mersin 11.5.2026 15:30 1.000 TL
1348 2003 Opel COMBO 1.7 DTI Konya 11.5.2026 15:30 1.000 TL
1349 2021 Toyota HILUX 2.4 D-4D 150 4x4 ADVENTURE Ankara 11.5.2026 16:30 4.000 TL
1350 2021 Volkswagen POLO 1.0 TSI 95 COMFORTLINE DSG Ankara 11.5.2026 16:30 338.000 TL
1351 2014 Ford TRANSIT 350M ?IFT KABIN KAMYONET 155 E5 Ankara 11.5.2026 16:30 245.000 TL
1352 2025 Ford TOURNEO COURIER 1.0 P 125 AT DELUXE Ankara 11.5.2026 16:30 300.000 TL
1353 2023 Traktör ANTONIO CARRARO TGF 8900 PROTECTOR İstanbul 11.5.2026 16:30 251.000 TL
1354 2020 Volkswagen PASSAT 1.6 TDI 120 DSG IMPRESSION Ankara 11.5.2026 16:30 17.500 TL
1355 2016 Dacia LODGY LAUREATE 1.5 DCI 90 5 KISILIK Ankara 11.5.2026 16:30 255.500 TL
1356 2016 Isuzu NLR KAMYONET İstanbul 11.5.2026 16:30 2.500 TL
1357 2011 Mitsubishi L200 TEK KABIN K.NET INFORM İstanbul 11.5.2026 16:30 76.000 TL
1358 2025 Honda NSS250A FORZA 250 İstanbul 11.5.2026 16:30 1.000 TL
1359 2013 Ford B-MAX TREND 1.6 İzmir 11.5.2026 16:30 1.000 TL
1360 1999 Rover 414 Sİ Ankara 11.5.2026 16:30 1.000 TL
1361 1997 Volkswagen POLO 1.6 Ankara 11.5.2026 16:30 1.000 TL
1362 2024 Motorsiklet RAIDER 125 Ankara 11.5.2026 16:30 1.000 TL
1363 2006 Dorse/Römork TENTELİ YARI RÖMORK Mardin 11.5.2026 16:30 36.500 TL
1364 2015 Fiat/Tofaş DUCATO KAMYONET İstanbul 11.5.2026 16:30 2.000 TL
1365 2001 Renault CLIO SYMBOL 1.4 Mersin 11.5.2026 16:30 5.000 TL
1366 2014 Audi A3 SEDAN 1.6 TDI 105 S TRONIC İzmir 12.5.2026 15:30 1.000 TL
1367 1998 Bmw 520IA Denizli 12.5.2026 15:30 1.000 TL
1368 2012 Scania CEKICI G420 CA 4x2 HSA Samsun 12.5.2026 15:30 1.000 TL
1369 2017 Opel INSIGNIA NB 1.6D İzmir 12.5.2026 15:30 1.000 TL
1370 2009 Fiat/Tofaş DOBLO COMBI 1.3 MULTIJET PREMIO Şehir Seç 12.5.2026 15:30 1.000 TL
1371 2003 Fiat/Tofaş SAHIN 1.6 İ.E. Şehir Seç 12.5.2026 15:30 1.000 TL
1372 2014 Scania CEKICI R400 LA 4x2 HLA Konya 12.5.2026 15:30 1.000 TL
1373 2010 Chevrolet CRUZE 1.6 16V LS Ankara 12.5.2026 16:30 1.000 TL
1374 2011 Motorsiklet TRIUMP TIGER 1050 CC İstanbul 12.5.2026 16:30 1.000 TL
1375 2025 Motorsiklet FIAT TOPOLINO İstanbul 12.5.2026 16:30 120.000 TL
1376 2017 Renault MEGANE SEDAN TOUCH 1.5 DCI EDC 110 İstanbul 12.5.2026 16:30 465.000 TL
1377 2023 Ford TRANSIT COURIER 1.5 TDCI 75 E6.2 TREND İstanbul 12.5.2026 16:30 1.000 TL
1378 2021 Honda CIVIC 4D ELEGANCE ECO 1.6 125 OV Ankara 12.5.2026 16:30 755.000 TL
1379 2017 Fiat/Tofaş EGEA URBAN 1.4 FIRE 95 E6 İstanbul 12.5.2026 16:30 1.000 TL
1380 2023 Motorsiklet APRILIA TUONO V4 FACTORY 1100 İstanbul 12.5.2026 16:30 30.000 TL
1381 2024 Opel VIVARO CARGO 2.0 145 DIZEL MT6 ELEGANCE XL İstanbul 12.5.2026 16:30 456.000 TL
1382 2023 Citroen E-C4 X SHINE BOLD 100 KW Ankara 12.5.2026 16:30 101.000 TL
1383 2006 Saab 9-3 VECTOR 2.0 T SEDAN Afyonkarahisar 28.7.2026 16:30 265.000 TL
Deniz Uğurlu : 0532 6657413 - Abdullah Adsay : 0506 7521791 - Metin Oktay : 0532 6717940 -  WhatsApp Hattı: 0533 2028867
Banka Hesabımız
Copyright © 2003 , TAŞKIN  UĞURLU  Hasarlı Oto Tüm hakları saklıdır.